Platte River (Nebraska), Leshara (06796500)

StateNebraskaLatestUnknown (2170 cfs)
RiverPlatte RiverRatingObservedEstimated
Updated2026-05-05 9:00 (47 minutes ago)Flood - The river is flooding. Obstacles can be treacherous or deadly. The river should be avoided at this stage for casual trips and definitely for the inexperienced. Trips should be attempted only with protective gear and equipment.Flood(none)(none)
Discharge2170 cfs (median: 6250 cfs)High - The river is high and potentially dangerous, especially for the young and / or inexperienced. Normal stream obstacles are sometimes difficult to navigate. Extended distances can be attempted, but canoe travel may not be advisable.High(none)(none)
Height3.88 feetGood - Conditions are ideal for a canoe or kayak. Boats typically will drag on fewer than one-quarter of riffles, if at all, and portages are unnecessary or rare. Normal float lengths can be attempted without a problem.Good(none)(none)
TrendFalling (falling over 24 hours)Low - River is low but can still be floated. Some riffles are okay but most come with significant dragging and might need a portage. Float lengths should be reduced to accommodate low flow, dragging, and portages.Low(none)(none)
USGSExternal icon USGS Site (External icon Duck Duck Go Maps)Poor - River is too low to float comfortably. Most or all riffles will drag or must be portaged and some obstacles (such as slick shelf rock) cause undue problems. Avoid the river at this stage for casual paddling trips.Poor(none)(none)

Trending Data

Plot Image

Trips for Platte River (Nebraska), Leshara (06796500)

DateStartEndDistanceConditionDischargeHeightFishingDetails

A total of 0 rows are displayed.

Condition Descriptions

Fishing Conditions

Fish Species

Notes

Classic Trip List

The classic River Trips application is still available for use. It is updated with the new system using a data retrofit. It is no longer maintained. The original River Trips application is no longer updated (as of 1 Dec 2016) but can be checked for errors or for the condition of the data before it was converted to the new system.

Gauge Data Table

ObservationHeightDischargeMaximum
Discharge
Minimum
Discharge
Mean
Discharge
P05P10P20P25P50
(Median)
P75P80P90P95
2026-05-05 09:00 3.88 2170 14600 (2016) 2270 (2004) 6220 2370 2710 3840 4240 6250 7010 7570 10900 12900
2026-05-05 08:00 3.89 2190 14600 (2016) 2270 (2004) 6220 2370 2710 3840 4240 6250 7010 7570 10900 12900
2026-05-05 07:00 3.89 2190 14600 (2016) 2270 (2004) 6220 2370 2710 3840 4240 6250 7010 7570 10900 12900
2026-05-05 06:00 3.90 2220 14600 (2016) 2270 (2004) 6220 2370 2710 3840 4240 6250 7010 7570 10900 12900
2026-05-05 05:00 3.90 2220 14600 (2016) 2270 (2004) 6220 2370 2710 3840 4240 6250 7010 7570 10900 12900
2026-05-05 04:00 3.88 2170 14600 (2016) 2270 (2004) 6220 2370 2710 3840 4240 6250 7010 7570 10900 12900
2026-05-05 03:00 3.86 2110 14600 (2016) 2270 (2004) 6220 2370 2710 3840 4240 6250 7010 7570 10900 12900
2026-05-05 02:00 3.86 2110 14600 (2016) 2270 (2004) 6220 2370 2710 3840 4240 6250 7010 7570 10900 12900
2026-05-05 01:00 3.85 2080 14600 (2016) 2270 (2004) 6220 2370 2710 3840 4240 6250 7010 7570 10900 12900
2026-05-05 00:00 3.84 2060 14600 (2016) 2270 (2004) 6220 2370 2710 3840 4240 6250 7010 7570 10900 12900
2026-05-04 23:00 3.85 2080 14600 (2016) 2270 (2004) 6220 2370 2710 3840 4240 6250 7010 7570 10900 12900
2026-05-04 22:00 3.84 2060 16000 (2016) 2490 (2023) 6170 2510 2880 3770 4470 6150 7100 7650 10200 13600
2026-05-04 21:00 3.87 2140 16000 (2016) 2490 (2023) 6170 2510 2880 3770 4470 6150 7100 7650 10200 13600
2026-05-04 20:00 3.87 2140 16000 (2016) 2490 (2023) 6170 2510 2880 3770 4470 6150 7100 7650 10200 13600
2026-05-04 19:00 3.88 2170 16000 (2016) 2490 (2023) 6170 2510 2880 3770 4470 6150 7100 7650 10200 13600
2026-05-04 18:00 3.89 2190 16000 (2016) 2490 (2023) 6170 2510 2880 3770 4470 6150 7100 7650 10200 13600
2026-05-04 17:00 3.90 2220 16000 (2016) 2490 (2023) 6170 2510 2880 3770 4470 6150 7100 7650 10200 13600
2026-05-04 16:00 3.90 2220 16000 (2016) 2490 (2023) 6170 2510 2880 3770 4470 6150 7100 7650 10200 13600
2026-05-04 15:00 3.90 2220 16000 (2016) 2490 (2023) 6170 2510 2880 3770 4470 6150 7100 7650 10200 13600
2026-05-04 14:00 3.92 2280 16000 (2016) 2490 (2023) 6170 2510 2880 3770 4470 6150 7100 7650 10200 13600
2026-05-04 13:00 3.93 2310 16000 (2016) 2490 (2023) 6170 2510 2880 3770 4470 6150 7100 7650 10200 13600
2026-05-04 12:00 3.93 2310 16000 (2016) 2490 (2023) 6170 2510 2880 3770 4470 6150 7100 7650 10200 13600
2026-05-04 11:00 3.91 2250 16000 (2016) 2490 (2023) 6170 2510 2880 3770 4470 6150 7100 7650 10200 13600
2026-05-04 10:00 3.92 2280 16000 (2016) 2490 (2023) 6170 2510 2880 3770 4470 6150 7100 7650 10200 13600
2026-05-04 09:00 3.92 2280 16000 (2016) 2490 (2023) 6170 2510 2880 3770 4470 6150 7100 7650 10200 13600
2026-05-04 08:00 3.93 2310 16000 (2016) 2490 (2023) 6170 2510 2880 3770 4470 6150 7100 7650 10200 13600
2026-05-04 07:00 3.92 2280 16000 (2016) 2490 (2023) 6170 2510 2880 3770 4470 6150 7100 7650 10200 13600
2026-05-04 06:00 3.92 2280 16000 (2016) 2490 (2023) 6170 2510 2880 3770 4470 6150 7100 7650 10200 13600
2026-05-04 05:00 3.93 2310 16000 (2016) 2490 (2023) 6170 2510 2880 3770 4470 6150 7100 7650 10200 13600
2026-05-04 04:00 3.92 2280 16000 (2016) 2490 (2023) 6170 2510 2880 3770 4470 6150 7100 7650 10200 13600
2026-05-04 03:00 3.91 2250 16000 (2016) 2490 (2023) 6170 2510 2880 3770 4470 6150 7100 7650 10200 13600
2026-05-04 02:00 3.91 2250 16000 (2016) 2490 (2023) 6170 2510 2880 3770 4470 6150 7100 7650 10200 13600
2026-05-04 01:00 3.91 2250 16000 (2016) 2490 (2023) 6170 2510 2880 3770 4470 6150 7100 7650 10200 13600
2026-05-04 00:00 3.90 2220 16000 (2016) 2490 (2023) 6170 2510 2880 3770 4470 6150 7100 7650 10200 13600
2026-05-03 23:00 3.89 2190 16000 (2016) 2490 (2023) 6170 2510 2880 3770 4470 6150 7100 7650 10200 13600
2026-05-03 22:00 3.89 2190 16700 (2016) 2450 (2004) 6020 2500 2620 3590 4500 6140 7290 7380 8140 13100
2026-05-03 21:00 3.87 2140 16700 (2016) 2450 (2004) 6020 2500 2620 3590 4500 6140 7290 7380 8140 13100
2026-05-03 20:00 3.89 2190 16700 (2016) 2450 (2004) 6020 2500 2620 3590 4500 6140 7290 7380 8140 13100
2026-05-03 19:00 3.88 2170 16700 (2016) 2450 (2004) 6020 2500 2620 3590 4500 6140 7290 7380 8140 13100
2026-05-03 18:00 3.89 2190 16700 (2016) 2450 (2004) 6020 2500 2620 3590 4500 6140 7290 7380 8140 13100
2026-05-03 17:00 3.89 2190 16700 (2016) 2450 (2004) 6020 2500 2620 3590 4500 6140 7290 7380 8140 13100
2026-05-03 16:00 3.91 2250 16700 (2016) 2450 (2004) 6020 2500 2620 3590 4500 6140 7290 7380 8140 13100
2026-05-03 15:00 3.91 2250 16700 (2016) 2450 (2004) 6020 2500 2620 3590 4500 6140 7290 7380 8140 13100
2026-05-03 14:00 3.92 2280 16700 (2016) 2450 (2004) 6020 2500 2620 3590 4500 6140 7290 7380 8140 13100
2026-05-03 13:00 3.92 2280 16700 (2016) 2450 (2004) 6020 2500 2620 3590 4500 6140 7290 7380 8140 13100
2026-05-03 12:00 3.92 2280 16700 (2016) 2450 (2004) 6020 2500 2620 3590 4500 6140 7290 7380 8140 13100
2026-05-03 11:00 3.91 2250 16700 (2016) 2450 (2004) 6020 2500 2620 3590 4500 6140 7290 7380 8140 13100
2026-05-03 10:00 3.89 2190 16700 (2016) 2450 (2004) 6020 2500 2620 3590 4500 6140 7290 7380 8140 13100
2026-05-03 09:00 3.85 2080 16700 (2016) 2450 (2004) 6020 2500 2620 3590 4500 6140 7290 7380 8140 13100
2026-05-03 08:00 3.84 2060 16700 (2016) 2450 (2004) 6020 2500 2620 3590 4500 6140 7290 7380 8140 13100
2026-05-03 07:00 3.82 2000 16700 (2016) 2450 (2004) 6020 2500 2620 3590 4500 6140 7290 7380 8140 13100
2026-05-03 06:00 3.81 1980 16700 (2016) 2450 (2004) 6020 2500 2620 3590 4500 6140 7290 7380 8140 13100
2026-05-03 05:00 3.80 1950 16700 (2016) 2450 (2004) 6020 2500 2620 3590 4500 6140 7290 7380 8140 13100
2026-05-03 04:00 3.78 1900 16700 (2016) 2450 (2004) 6020 2500 2620 3590 4500 6140 7290 7380 8140 13100
2026-05-03 03:00 3.77 1870 16700 (2016) 2450 (2004) 6020 2500 2620 3590 4500 6140 7290 7380 8140 13100
2026-05-03 02:00 3.78 1900 16700 (2016) 2450 (2004) 6020 2500 2620 3590 4500 6140 7290 7380 8140 13100
2026-05-03 01:00 3.76 1850 16700 (2016) 2450 (2004) 6020 2500 2620 3590 4500 6140 7290 7380 8140 13100
2026-05-03 00:00 3.76 1850 16700 (2016) 2450 (2004) 6020 2500 2620 3590 4500 6140 7290 7380 8140 13100
2026-05-02 23:00 3.75 1820 16700 (2016) 2450 (2004) 6020 2500 2620 3590 4500 6140 7290 7380 8140 13100
2026-05-02 22:00 3.76 1850 17400 (2016) 2290 (2004) 6210 2490 2980 3930 4490 6220 7200 7420 9240 13700
2026-05-02 21:00 3.76 1850 17400 (2016) 2290 (2004) 6210 2490 2980 3930 4490 6220 7200 7420 9240 13700
2026-05-02 20:00 3.77 1870 17400 (2016) 2290 (2004) 6210 2490 2980 3930 4490 6220 7200 7420 9240 13700
2026-05-02 19:00 3.77 1870 17400 (2016) 2290 (2004) 6210 2490 2980 3930 4490 6220 7200 7420 9240 13700
2026-05-02 18:00 3.78 1900 17400 (2016) 2290 (2004) 6210 2490 2980 3930 4490 6220 7200 7420 9240 13700
2026-05-02 17:00 3.78 1900 17400 (2016) 2290 (2004) 6210 2490 2980 3930 4490 6220 7200 7420 9240 13700
2026-05-02 16:00 3.79 1930 17400 (2016) 2290 (2004) 6210 2490 2980 3930 4490 6220 7200 7420 9240 13700
2026-05-02 15:00 3.80 1950 17400 (2016) 2290 (2004) 6210 2490 2980 3930 4490 6220 7200 7420 9240 13700
2026-05-02 14:00 3.82 2000 17400 (2016) 2290 (2004) 6210 2490 2980 3930 4490 6220 7200 7420 9240 13700
2026-05-02 13:00 3.84 2060 17400 (2016) 2290 (2004) 6210 2490 2980 3930 4490 6220 7200 7420 9240 13700
2026-05-02 12:00 3.86 2110 17400 (2016) 2290 (2004) 6210 2490 2980 3930 4490 6220 7200 7420 9240 13700
2026-05-02 11:00 3.88 2170 17400 (2016) 2290 (2004) 6210 2490 2980 3930 4490 6220 7200 7420 9240 13700
2026-05-02 10:00 3.91 2250 17400 (2016) 2290 (2004) 6210 2490 2980 3930 4490 6220 7200 7420 9240 13700
2026-05-02 09:00 3.94 2340 17400 (2016) 2290 (2004) 6210 2490 2980 3930 4490 6220 7200 7420 9240 13700
2026-05-02 08:00 3.96 2390 17400 (2016) 2290 (2004) 6210 2490 2980 3930 4490 6220 7200 7420 9240 13700
2026-05-02 07:00 3.99 2480 17400 (2016) 2290 (2004) 6210 2490 2980 3930 4490 6220 7200 7420 9240 13700
2026-05-02 06:00 4.02 2570 17400 (2016) 2290 (2004) 6210 2490 2980 3930 4490 6220 7200 7420 9240 13700
2026-05-02 05:00 4.05 2670 17400 (2016) 2290 (2004) 6210 2490 2980 3930 4490 6220 7200 7420 9240 13700
2026-05-02 04:00 4.09 2790 17400 (2016) 2290 (2004) 6210 2490 2980 3930 4490 6220 7200 7420 9240 13700
2026-05-02 03:00 4.12 2890 17400 (2016) 2290 (2004) 6210 2490 2980 3930 4490 6220 7200 7420 9240 13700
2026-05-02 02:00 4.16 3020 17400 (2016) 2290 (2004) 6210 2490 2980 3930 4490 6220 7200 7420 9240 13700
2026-05-02 01:00 4.17 3060 17400 (2016) 2290 (2004) 6210 2490 2980 3930 4490 6220 7200 7420 9240 13700
2026-05-02 00:00 4.22 3230 17400 (2016) 2290 (2004) 6210 2490 2980 3930 4490 6220 7200 7420 9240 13700
2026-05-01 23:00 4.26 3370 17400 (2016) 2290 (2004) 6210 2490 2980 3930 4490 6220 7200 7420 9240 13700
2026-05-01 22:00 4.27 3410 15800 (2016) 2170 (2023) 6000 2410 3160 4080 4420 5770 7200 7270 8330 12300
2026-05-01 21:00 4.28 3440 15800 (2016) 2170 (2023) 6000 2410 3160 4080 4420 5770 7200 7270 8330 12300
2026-05-01 20:00 4.31 3550 15800 (2016) 2170 (2023) 6000 2410 3160 4080 4420 5770 7200 7270 8330 12300
2026-05-01 19:00 4.30 3520 15800 (2016) 2170 (2023) 6000 2410 3160 4080 4420 5770 7200 7270 8330 12300
2026-05-01 18:00 4.27 3410 15800 (2016) 2170 (2023) 6000 2410 3160 4080 4420 5770 7200 7270 8330 12300
2026-05-01 17:00 4.23 3260 15800 (2016) 2170 (2023) 6000 2410 3160 4080 4420 5770 7200 7270 8330 12300
2026-05-01 16:00 4.16 3020 15800 (2016) 2170 (2023) 6000 2410 3160 4080 4420 5770 7200 7270 8330 12300
2026-05-01 15:00 4.08 2760 15800 (2016) 2170 (2023) 6000 2410 3160 4080 4420 5770 7200 7270 8330 12300
2026-05-01 14:00 3.99 2480 15800 (2016) 2170 (2023) 6000 2410 3160 4080 4420 5770 7200 7270 8330 12300
2026-05-01 13:00 3.92 2280 15800 (2016) 2170 (2023) 6000 2410 3160 4080 4420 5770 7200 7270 8330 12300
2026-05-01 12:00 3.89 2190 15800 (2016) 2170 (2023) 6000 2410 3160 4080 4420 5770 7200 7270 8330 12300
2026-05-01 11:00 3.90 2220 15800 (2016) 2170 (2023) 6000 2410 3160 4080 4420 5770 7200 7270 8330 12300
2026-05-01 10:00 3.90 2220 15800 (2016) 2170 (2023) 6000 2410 3160 4080 4420 5770 7200 7270 8330 12300
2026-05-01 09:00 3.93 2310 15800 (2016) 2170 (2023) 6000 2410 3160 4080 4420 5770 7200 7270 8330 12300
2026-05-01 08:00 3.97 2420 15800 (2016) 2170 (2023) 6000 2410 3160 4080 4420 5770 7200 7270 8330 12300
2026-05-01 07:00 4.02 2570 15800 (2016) 2170 (2023) 6000 2410 3160 4080 4420 5770 7200 7270 8330 12300
2026-05-01 06:00 4.06 2700 15800 (2016) 2170 (2023) 6000 2410 3160 4080 4420 5770 7200 7270 8330 12300
2026-05-01 05:00 4.11 2860 15800 (2016) 2170 (2023) 6000 2410 3160 4080 4420 5770 7200 7270 8330 12300
2026-05-01 04:00 4.16 3020 15800 (2016) 2170 (2023) 6000 2410 3160 4080 4420 5770 7200 7270 8330 12300
2026-05-01 03:00 4.19 3130 15800 (2016) 2170 (2023) 6000 2410 3160 4080 4420 5770 7200 7270 8330 12300
2026-05-01 02:00 4.22 3230 15800 (2016) 2170 (2023) 6000 2410 3160 4080 4420 5770 7200 7270 8330 12300
2026-05-01 01:00 4.26 3370 15800 (2016) 2170 (2023) 6000 2410 3160 4080 4420 5770 7200 7270 8330 12300
2026-05-01 00:00 4.29 3480 15800 (2016) 2170 (2023) 6000 2410 3160 4080 4420 5770 7200 7270 8330 12300
2026-04-30 23:00 4.30 3520 15800 (2016) 2170 (2023) 6000 2410 3160 4080 4420 5770 7200 7270 8330 12300
2026-04-30 22:00 4.33 3630 14100 (2016) 2350 (2023) 5930 2580 3490 4250 4590 4950 7060 7630 8700 12400
2026-04-30 21:00 4.33 3630 14100 (2016) 2350 (2023) 5930 2580 3490 4250 4590 4950 7060 7630 8700 12400
2026-04-30 20:00 4.32 3590 14100 (2016) 2350 (2023) 5930 2580 3490 4250 4590 4950 7060 7630 8700 12400
2026-04-30 19:00 4.30 3520 14100 (2016) 2350 (2023) 5930 2580 3490 4250 4590 4950 7060 7630 8700 12400
2026-04-30 18:00 4.26 3370 14100 (2016) 2350 (2023) 5930 2580 3490 4250 4590 4950 7060 7630 8700 12400
2026-04-30 17:00 4.19 3130 14100 (2016) 2350 (2023) 5930 2580 3490 4250 4590 4950 7060 7630 8700 12400
2026-04-30 16:00 4.10 2830 14100 (2016) 2350 (2023) 5930 2580 3490 4250 4590 4950 7060 7630 8700 12400
2026-04-30 15:00 3.99 2480 14100 (2016) 2350 (2023) 5930 2580 3490 4250 4590 4950 7060 7630 8700 12400
2026-04-30 14:00 3.89 2190 14100 (2016) 2350 (2023) 5930 2580 3490 4250 4590 4950 7060 7630 8700 12400
2026-04-30 13:00 3.83 2030 14100 (2016) 2350 (2023) 5930 2580 3490 4250 4590 4950 7060 7630 8700 12400
2026-04-30 12:00 3.82 2000 14100 (2016) 2350 (2023) 5930 2580 3490 4250 4590 4950 7060 7630 8700 12400
2026-04-30 11:00 3.82 2000 14100 (2016) 2350 (2023) 5930 2580 3490 4250 4590 4950 7060 7630 8700 12400
2026-04-30 10:00 3.85 2080 14100 (2016) 2350 (2023) 5930 2580 3490 4250 4590 4950 7060 7630 8700 12400
2026-04-30 09:00 3.89 2190 14100 (2016) 2350 (2023) 5930 2580 3490 4250 4590 4950 7060 7630 8700 12400
2026-04-30 08:00 3.94 2340 14100 (2016) 2350 (2023) 5930 2580 3490 4250 4590 4950 7060 7630 8700 12400
2026-04-30 07:00 3.98 2450 14100 (2016) 2350 (2023) 5930 2580 3490 4250 4590 4950 7060 7630 8700 12400
2026-04-30 06:00 4.03 2600 14100 (2016) 2350 (2023) 5930 2580 3490 4250 4590 4950 7060 7630 8700 12400
2026-04-30 05:00 4.07 2730 14100 (2016) 2350 (2023) 5930 2580 3490 4250 4590 4950 7060 7630 8700 12400
2026-04-30 04:00 4.12 2890 14100 (2016) 2350 (2023) 5930 2580 3490 4250 4590 4950 7060 7630 8700 12400
2026-04-30 03:00 4.16 3020 14100 (2016) 2350 (2023) 5930 2580 3490 4250 4590 4950 7060 7630 8700 12400
2026-04-30 02:00 4.21 3190 14100 (2016) 2350 (2023) 5930 2580 3490 4250 4590 4950 7060 7630 8700 12400
2026-04-30 01:00 4.24 3300 14100 (2016) 2350 (2023) 5930 2580 3490 4250 4590 4950 7060 7630 8700 12400
2026-04-30 00:00 4.25 3340 14100 (2016) 2350 (2023) 5930 2580 3490 4250 4590 4950 7060 7630 8700 12400
2026-04-29 23:00 4.27 3410 14100 (2016) 2350 (2023) 5930 2580 3490 4250 4590 4950 7060 7630 8700 12400
2026-04-29 22:00 4.28 3440 15600 (2016) 2780 (2023) 6210 2810 3310 4270 4500 5280 7330 7480 8930 14800
2026-04-29 21:00 4.32 3590 15600 (2016) 2780 (2023) 6210 2810 3310 4270 4500 5280 7330 7480 8930 14800
2026-04-29 20:00 4.31 3550 15600 (2016) 2780 (2023) 6210 2810 3310 4270 4500 5280 7330 7480 8930 14800
2026-04-29 19:00 4.31 3550 15600 (2016) 2780 (2023) 6210 2810 3310 4270 4500 5280 7330 7480 8930 14800
2026-04-29 18:00 4.28 3440 15600 (2016) 2780 (2023) 6210 2810 3310 4270 4500 5280 7330 7480 8930 14800
2026-04-29 17:00 4.21 3190 15600 (2016) 2780 (2023) 6210 2810 3310 4270 4500 5280 7330 7480 8930 14800
2026-04-29 16:00 4.13 2920 15600 (2016) 2780 (2023) 6210 2810 3310 4270 4500 5280 7330 7480 8930 14800
2026-04-29 15:00 4.03 2600 15600 (2016) 2780 (2023) 6210 2810 3310 4270 4500 5280 7330 7480 8930 14800
2026-04-29 14:00 3.93 2310 15600 (2016) 2780 (2023) 6210 2810 3310 4270 4500 5280 7330 7480 8930 14800
2026-04-29 13:00 3.86 2110 15600 (2016) 2780 (2023) 6210 2810 3310 4270 4500 5280 7330 7480 8930 14800
2026-04-29 12:00 3.81 1980 15600 (2016) 2780 (2023) 6210 2810 3310 4270 4500 5280 7330 7480 8930 14800
2026-04-29 11:00 3.82 2000 15600 (2016) 2780 (2023) 6210 2810 3310 4270 4500 5280 7330 7480 8930 14800
2026-04-29 10:00 3.83 2030 15600 (2016) 2780 (2023) 6210 2810 3310 4270 4500 5280 7330 7480 8930 14800
2026-04-29 09:00 3.85 2080 15600 (2016) 2780 (2023) 6210 2810 3310 4270 4500 5280 7330 7480 8930 14800
2026-04-29 08:00 3.90 2220 15600 (2016) 2780 (2023) 6210 2810 3310 4270 4500 5280 7330 7480 8930 14800
2026-04-29 07:00 3.94 2340 15600 (2016) 2780 (2023) 6210 2810 3310 4270 4500 5280 7330 7480 8930 14800
2026-04-29 06:00 3.99 2480 15600 (2016) 2780 (2023) 6210 2810 3310 4270 4500 5280 7330 7480 8930 14800
2026-04-29 05:00 4.03 2600 15600 (2016) 2780 (2023) 6210 2810 3310 4270 4500 5280 7330 7480 8930 14800
2026-04-29 04:00 4.06 2700 15600 (2016) 2780 (2023) 6210 2810 3310 4270 4500 5280 7330 7480 8930 14800
2026-04-29 03:00 4.13 2920 15600 (2016) 2780 (2023) 6210 2810 3310 4270 4500 5280 7330 7480 8930 14800
2026-04-29 02:00 4.16 3020 15600 (2016) 2780 (2023) 6210 2810 3310 4270 4500 5280 7330 7480 8930 14800
2026-04-29 01:00 4.19 3130 15600 (2016) 2780 (2023) 6210 2810 3310 4270 4500 5280 7330 7480 8930 14800
2026-04-29 00:00 4.19 3130 15600 (2016) 2780 (2023) 6210 2810 3310 4270 4500 5280 7330 7480 8930 14800
2026-04-28 23:00 4.19 3130 15600 (2016) 2780 (2023) 6210 2810 3310 4270 4500 5280 7330 7480 8930 14800
2026-04-28 22:00 4.17 3060 16100 (2007) 2560 (2022) 6300 2650 3140 4040 4380 5530 7880 8180 10800 13300
2026-04-28 21:00 4.13 2920 16100 (2007) 2560 (2022) 6300 2650 3140 4040 4380 5530 7880 8180 10800 13300
2026-04-28 20:00 4.06 2700 16100 (2007) 2560 (2022) 6300 2650 3140 4040 4380 5530 7880 8180 10800 13300
2026-04-28 19:00 3.95 2370 16100 (2007) 2560 (2022) 6300 2650 3140 4040 4380 5530 7880 8180 10800 13300
2026-04-28 18:00 3.85 2080 16100 (2007) 2560 (2022) 6300 2650 3140 4040 4380 5530 7880 8180 10800 13300
2026-04-28 17:00 3.76 1850 16100 (2007) 2560 (2022) 6300 2650 3140 4040 4380 5530 7880 8180 10800 13300
2026-04-28 16:00 3.70 1700 16100 (2007) 2560 (2022) 6300 2650 3140 4040 4380 5530 7880 8180 10800 13300
2026-04-28 15:00 3.68 1650 16100 (2007) 2560 (2022) 6300 2650 3140 4040 4380 5530 7880 8180 10800 13300
2026-04-28 14:00 3.68 1650 16100 (2007) 2560 (2022) 6300 2650 3140 4040 4380 5530 7880 8180 10800 13300
2026-04-28 13:00 3.68 1650 16100 (2007) 2560 (2022) 6300 2650 3140 4040 4380 5530 7880 8180 10800 13300
2026-04-28 12:00 3.70 1700 16100 (2007) 2560 (2022) 6300 2650 3140 4040 4380 5530 7880 8180 10800 13300
2026-04-28 11:00 3.75 1820 16100 (2007) 2560 (2022) 6300 2650 3140 4040 4380 5530 7880 8180 10800 13300
2026-04-28 10:00 3.80 1950 16100 (2007) 2560 (2022) 6300 2650 3140 4040 4380 5530 7880 8180 10800 13300
2026-04-28 09:00 3.85 2080 16100 (2007) 2560 (2022) 6300 2650 3140 4040 4380 5530 7880 8180 10800 13300
2026-04-28 08:00 3.90 2220 16100 (2007) 2560 (2022) 6300 2650 3140 4040 4380 5530 7880 8180 10800 13300
2026-04-28 07:00 3.95 2370 16100 (2007) 2560 (2022) 6300 2650 3140 4040 4380 5530 7880 8180 10800 13300
2026-04-28 06:00 4.01 2540 16100 (2007) 2560 (2022) 6300 2650 3140 4040 4380 5530 7880 8180 10800 13300
2026-04-28 05:00 4.02 2570 16100 (2007) 2560 (2022) 6300 2650 3140 4040 4380 5530 7880 8180 10800 13300
2026-04-28 04:00 4.09 2790 16100 (2007) 2560 (2022) 6300 2650 3140 4040 4380 5530 7880 8180 10800 13300
2026-04-28 03:00 4.15 2990 16100 (2007) 2560 (2022) 6300 2650 3140 4040 4380 5530 7880 8180 10800 13300
2026-04-28 02:00 4.17 3060 16100 (2007) 2560 (2022) 6300 2650 3140 4040 4380 5530 7880 8180 10800 13300
2026-04-28 01:00 4.24 3300 16100 (2007) 2560 (2022) 6300 2650 3140 4040 4380 5530 7880 8180 10800 13300
2026-04-28 00:00 4.26 3370 16100 (2007) 2560 (2022) 6300 2650 3140 4040 4380 5530 7880 8180 10800 13300
2026-04-27 23:00 4.23 3260 16100 (2007) 2560 (2022) 6300 2650 3140 4040 4380 5530 7880 8180 10800 13300
2026-04-27 22:00 4.27 3410 20400 (2007) 2370 (2002) 6280 2410 2880 4380 4460 5350 7570 7840 9530 15500
2026-04-27 21:00 4.26 3370 20400 (2007) 2370 (2002) 6280 2410 2880 4380 4460 5350 7570 7840 9530 15500
2026-04-27 20:00 4.27 3410 20400 (2007) 2370 (2002) 6280 2410 2880 4380 4460 5350 7570 7840 9530 15500
2026-04-27 19:00 4.19 3130 20400 (2007) 2370 (2002) 6280 2410 2880 4380 4460 5350 7570 7840 9530 15500
2026-04-27 18:00 4.11 2860 20400 (2007) 2370 (2002) 6280 2410 2880 4380 4460 5350 7570 7840 9530 15500
2026-04-27 17:00 3.97 2420 20400 (2007) 2370 (2002) 6280 2410 2880 4380 4460 5350 7570 7840 9530 15500
2026-04-27 16:00 3.81 1980 20400 (2007) 2370 (2002) 6280 2410 2880 4380 4460 5350 7570 7840 9530 15500
2026-04-27 15:00 3.73 1770 20400 (2007) 2370 (2002) 6280 2410 2880 4380 4460 5350 7570 7840 9530 15500
2026-04-27 14:00 3.71 1730 20400 (2007) 2370 (2002) 6280 2410 2880 4380 4460 5350 7570 7840 9530 15500
2026-04-27 13:00 3.71 1730 20400 (2007) 2370 (2002) 6280 2410 2880 4380 4460 5350 7570 7840 9530 15500
2026-04-27 12:00 3.76 1850 20400 (2007) 2370 (2002) 6280 2410 2880 4380 4460 5350 7570 7840 9530 15500
2026-04-27 11:00 3.78 1900 20400 (2007) 2370 (2002) 6280 2410 2880 4380 4460 5350 7570 7840 9530 15500
2026-04-27 10:00 3.85 2080 20400 (2007) 2370 (2002) 6280 2410 2880 4380 4460 5350 7570 7840 9530 15500
2026-04-27 09:00 3.89 2190 20400 (2007) 2370 (2002) 6280 2410 2880 4380 4460 5350 7570 7840 9530 15500
2026-04-27 08:00 3.92 2280 20400 (2007) 2370 (2002) 6280 2410 2880 4380 4460 5350 7570 7840 9530 15500
2026-04-27 07:00 3.98 2450 20400 (2007) 2370 (2002) 6280 2410 2880 4380 4460 5350 7570 7840 9530 15500
2026-04-27 06:00 4.03 2600 20400 (2007) 2370 (2002) 6280 2410 2880 4380 4460 5350 7570 7840 9530 15500
2026-04-27 05:00 4.06 2700 20400 (2007) 2370 (2002) 6280 2410 2880 4380 4460 5350 7570 7840 9530 15500
2026-04-27 04:00 4.04 2640 20400 (2007) 2370 (2002) 6280 2410 2880 4380 4460 5350 7570 7840 9530 15500
2026-04-27 03:00 4.05 2670 20400 (2007) 2370 (2002) 6280 2410 2880 4380 4460 5350 7570 7840 9530 15500
2026-04-27 02:00 4.06 2700 20400 (2007) 2370 (2002) 6280 2410 2880 4380 4460 5350 7570 7840 9530 15500
2026-04-27 01:00 4.03 2600 20400 (2007) 2370 (2002) 6280 2410 2880 4380 4460 5350 7570 7840 9530 15500
2026-04-27 00:00 3.97 2420 20400 (2007) 2370 (2002) 6280 2410 2880 4380 4460 5350 7570 7840 9530 15500
2026-04-26 23:00 3.89 2190 20400 (2007) 2370 (2002) 6280 2410 2880 4380 4460 5350 7570 7840 9530 15500
2026-04-26 22:00 3.80 1950 20100 (2007) 2480 (2002) 6150 2600 2770 3520 4050 5480 7550 7710 9870 15300
2026-04-26 21:00 3.70 1700 20100 (2007) 2480 (2002) 6150 2600 2770 3520 4050 5480 7550 7710 9870 15300
2026-04-26 20:00 3.64 1560 20100 (2007) 2480 (2002) 6150 2600 2770 3520 4050 5480 7550 7710 9870 15300
2026-04-26 19:00 3.57 1410 20100 (2007) 2480 (2002) 6150 2600 2770 3520 4050 5480 7550 7710 9870 15300
2026-04-26 18:00 3.55 1360 20100 (2007) 2480 (2002) 6150 2600 2770 3520 4050 5480 7550 7710 9870 15300
2026-04-26 17:00 3.55 1360 20100 (2007) 2480 (2002) 6150 2600 2770 3520 4050 5480 7550 7710 9870 15300
2026-04-26 16:00 3.55 1360 20100 (2007) 2480 (2002) 6150 2600 2770 3520 4050 5480 7550 7710 9870 15300
2026-04-26 15:00 3.56 1390 20100 (2007) 2480 (2002) 6150 2600 2770 3520 4050 5480 7550 7710 9870 15300
2026-04-26 14:00 3.60 1470 20100 (2007) 2480 (2002) 6150 2600 2770 3520 4050 5480 7550 7710 9870 15300
2026-04-26 13:00 3.63 1540 20100 (2007) 2480 (2002) 6150 2600 2770 3520 4050 5480 7550 7710 9870 15300
2026-04-26 12:00 3.66 1610 20100 (2007) 2480 (2002) 6150 2600 2770 3520 4050 5480 7550 7710 9870 15300
2026-04-26 11:00 3.72 1750 20100 (2007) 2480 (2002) 6150 2600 2770 3520 4050 5480 7550 7710 9870 15300
2026-04-26 10:00 3.78 1900 20100 (2007) 2480 (2002) 6150 2600 2770 3520 4050 5480 7550 7710 9870 15300
2026-04-26 09:00 3.83 2030 20100 (2007) 2480 (2002) 6150 2600 2770 3520 4050 5480 7550 7710 9870 15300
2026-04-26 08:00 3.88 2170 20100 (2007) 2480 (2002) 6150 2600 2770 3520 4050 5480 7550 7710 9870 15300
2026-04-26 07:00 3.95 2370 20100 (2007) 2480 (2002) 6150 2600 2770 3520 4050 5480 7550 7710 9870 15300
2026-04-26 06:00 4.02 2570 20100 (2007) 2480 (2002) 6150 2600 2770 3520 4050 5480 7550 7710 9870 15300
2026-04-26 05:00 4.06 2700 20100 (2007) 2480 (2002) 6150 2600 2770 3520 4050 5480 7550 7710 9870 15300
2026-04-26 04:00 4.10 2830 20100 (2007) 2480 (2002) 6150 2600 2770 3520 4050 5480 7550 7710 9870 15300
2026-04-26 03:00 4.11 2860 20100 (2007) 2480 (2002) 6150 2600 2770 3520 4050 5480 7550 7710 9870 15300
2026-04-26 02:00 4.17 3060 20100 (2007) 2480 (2002) 6150 2600 2770 3520 4050 5480 7550 7710 9870 15300
2026-04-26 01:00 4.15 2990 20100 (2007) 2480 (2002) 6150 2600 2770 3520 4050 5480 7550 7710 9870 15300
2026-04-26 00:00 4.20 3160 20100 (2007) 2480 (2002) 6150 2600 2770 3520 4050 5480 7550 7710 9870 15300
2026-04-25 23:00 4.21 3190 20100 (2007) 2480 (2002) 6150 2600 2770 3520 4050 5480 7550 7710 9870 15300
2026-04-25 22:00 4.14 2960 12700 (2001) 2640 (2023) 6150 2660 2890 3390 4320 5830 7930 7960 9730 12000
2026-04-25 21:00 4.07 2730 12700 (2001) 2640 (2023) 6150 2660 2890 3390 4320 5830 7930 7960 9730 12000
2026-04-25 20:00 3.99 2480 12700 (2001) 2640 (2023) 6150 2660 2890 3390 4320 5830 7930 7960 9730 12000
2026-04-25 19:00 3.79 1930 12700 (2001) 2640 (2023) 6150 2660 2890 3390 4320 5830 7930 7960 9730 12000
2026-04-25 18:00 3.60 1470 12700 (2001) 2640 (2023) 6150 2660 2890 3390 4320 5830 7930 7960 9730 12000
2026-04-25 17:00 3.48 1220 12700 (2001) 2640 (2023) 6150 2660 2890 3390 4320 5830 7930 7960 9730 12000
2026-04-25 16:00 3.42 1110 12700 (2001) 2640 (2023) 6150 2660 2890 3390 4320 5830 7930 7960 9730 12000
2026-04-25 15:00 3.41 1090 12700 (2001) 2640 (2023) 6150 2660 2890 3390 4320 5830 7930 7960 9730 12000
2026-04-25 14:00 3.42 1110 12700 (2001) 2640 (2023) 6150 2660 2890 3390 4320 5830 7930 7960 9730 12000
2026-04-25 13:00 3.45 1160 12700 (2001) 2640 (2023) 6150 2660 2890 3390 4320 5830 7930 7960 9730 12000
2026-04-25 12:00 3.48 1220 12700 (2001) 2640 (2023) 6150 2660 2890 3390 4320 5830 7930 7960 9730 12000
2026-04-25 11:00 3.52 1300 12700 (2001) 2640 (2023) 6150 2660 2890 3390 4320 5830 7930 7960 9730 12000
2026-04-25 10:00 3.57 1410 12700 (2001) 2640 (2023) 6150 2660 2890 3390 4320 5830 7930 7960 9730 12000
2026-04-25 09:00 3.62 1520 12700 (2001) 2640 (2023) 6150 2660 2890 3390 4320 5830 7930 7960 9730 12000
2026-04-25 08:00 3.65 1580 12700 (2001) 2640 (2023) 6150 2660 2890 3390 4320 5830 7930 7960 9730 12000
2026-04-25 07:00 3.71 1730 12700 (2001) 2640 (2023) 6150 2660 2890 3390 4320 5830 7930 7960 9730 12000
2026-04-25 06:00 3.74 1800 12700 (2001) 2640 (2023) 6150 2660 2890 3390 4320 5830 7930 7960 9730 12000
2026-04-25 05:00 3.75 1820 12700 (2001) 2640 (2023) 6150 2660 2890 3390 4320 5830 7930 7960 9730 12000
2026-04-25 04:00 3.77 1870 12700 (2001) 2640 (2023) 6150 2660 2890 3390 4320 5830 7930 7960 9730 12000
2026-04-25 03:00 3.79 1930 12700 (2001) 2640 (2023) 6150 2660 2890 3390 4320 5830 7930 7960 9730 12000
2026-04-25 02:00 3.79 1930 12700 (2001) 2640 (2023) 6150 2660 2890 3390 4320 5830 7930 7960 9730 12000
2026-04-25 01:00 3.76 1850 12700 (2001) 2640 (2023) 6150 2660 2890 3390 4320 5830 7930 7960 9730 12000
2026-04-25 00:00 3.72 1750 12700 (2001) 2640 (2023) 6150 2660 2890 3390 4320 5830 7930 7960 9730 12000
2026-04-24 23:00 3.67 1630 12700 (2001) 2640 (2023) 6150 2660 2890 3390 4320 5830 7930 7960 9730 12000
2026-04-24 22:00 3.62 1520 15100 (2001) 2580 (2006) 6140 2730 2940 3450 4220 5890 7930 8080 9650 12300
2026-04-24 21:00 3.55 1360 15100 (2001) 2580 (2006) 6140 2730 2940 3450 4220 5890 7930 8080 9650 12300
2026-04-24 20:00 3.50 1260 15100 (2001) 2580 (2006) 6140 2730 2940 3450 4220 5890 7930 8080 9650 12300
2026-04-24 19:00 3.47 1200 15100 (2001) 2580 (2006) 6140 2730 2940 3450 4220 5890 7930 8080 9650 12300
2026-04-24 18:00 3.44 1140 15100 (2001) 2580 (2006) 6140 2730 2940 3450 4220 5890 7930 8080 9650 12300
2026-04-24 17:00 3.44 1140 15100 (2001) 2580 (2006) 6140 2730 2940 3450 4220 5890 7930 8080 9650 12300
2026-04-24 16:00 3.45 1160 15100 (2001) 2580 (2006) 6140 2730 2940 3450 4220 5890 7930 8080 9650 12300
2026-04-24 15:00 3.47 1200 15100 (2001) 2580 (2006) 6140 2730 2940 3450 4220 5890 7930 8080 9650 12300
2026-04-24 14:00 3.49 1240 15100 (2001) 2580 (2006) 6140 2730 2940 3450 4220 5890 7930 8080 9650 12300
2026-04-24 13:00 3.53 1320 15100 (2001) 2580 (2006) 6140 2730 2940 3450 4220 5890 7930 8080 9650 12300
2026-04-24 12:00 3.57 1410 15100 (2001) 2580 (2006) 6140 2730 2940 3450 4220 5890 7930 8080 9650 12300
2026-04-24 11:00 3.62 1520 15100 (2001) 2580 (2006) 6140 2730 2940 3450 4220 5890 7930 8080 9650 12300
2026-04-24 10:00 3.66 1610 15100 (2001) 2580 (2006) 6140 2730 2940 3450 4220 5890 7930 8080 9650 12300
2026-04-24 09:00 3.71 1730 15100 (2001) 2580 (2006) 6140 2730 2940 3450 4220 5890 7930 8080 9650 12300
2026-04-24 08:00 3.74 1800 15100 (2001) 2580 (2006) 6140 2730 2940 3450 4220 5890 7930 8080 9650 12300
2026-04-24 07:00 3.76 1850 15100 (2001) 2580 (2006) 6140 2730 2940 3450 4220 5890 7930 8080 9650 12300
2026-04-24 06:00 3.79 1930 15100 (2001) 2580 (2006) 6140 2730 2940 3450 4220 5890 7930 8080 9650 12300
2026-04-24 05:00 3.81 1980 15100 (2001) 2580 (2006) 6140 2730 2940 3450 4220 5890 7930 8080 9650 12300
2026-04-24 04:00 3.82 2000 15100 (2001) 2580 (2006) 6140 2730 2940 3450 4220 5890 7930 8080 9650 12300
2026-04-24 03:00 3.83 2030 15100 (2001) 2580 (2006) 6140 2730 2940 3450 4220 5890 7930 8080 9650 12300
2026-04-24 02:00 3.84 2060 15100 (2001) 2580 (2006) 6140 2730 2940 3450 4220 5890 7930 8080 9650 12300
2026-04-24 01:00 3.87 2140 15100 (2001) 2580 (2006) 6140 2730 2940 3450 4220 5890 7930 8080 9650 12300
2026-04-24 00:00 3.88 2170 15100 (2001) 2580 (2006) 6140 2730 2940 3450 4220 5890 7930 8080 9650 12300
2026-04-23 23:00 3.91 2250 15100 (2001) 2580 (2006) 6140 2730 2940 3450 4220 5890 7930 8080 9650 12300
2026-04-23 22:00 3.93 2310 10800 (2016) 2250 (2022) 5930 2290 2590 3620 3980 5980 7960 8090 9680 10300
2026-04-23 21:00 3.94 2340 10800 (2016) 2250 (2022) 5930 2290 2590 3620 3980 5980 7960 8090 9680 10300
2026-04-23 20:00 3.94 2340 10800 (2016) 2250 (2022) 5930 2290 2590 3620 3980 5980 7960 8090 9680 10300
2026-04-23 19:00 3.85 2080 10800 (2016) 2250 (2022) 5930 2290 2590 3620 3980 5980 7960 8090 9680 10300
2026-04-23 18:00 3.77 1870 10800 (2016) 2250 (2022) 5930 2290 2590 3620 3980 5980 7960 8090 9680 10300
2026-04-23 17:00 3.69 1680 10800 (2016) 2250 (2022) 5930 2290 2590 3620 3980 5980 7960 8090 9680 10300
2026-04-23 16:00 3.67 1630 10800 (2016) 2250 (2022) 5930 2290 2590 3620 3980 5980 7960 8090 9680 10300
2026-04-23 15:00 3.68 1650 10800 (2016) 2250 (2022) 5930 2290 2590 3620 3980 5980 7960 8090 9680 10300
2026-04-23 14:00 3.69 1680 10800 (2016) 2250 (2022) 5930 2290 2590 3620 3980 5980 7960 8090 9680 10300
2026-04-23 13:00 3.65 1580 10800 (2016) 2250 (2022) 5930 2290 2590 3620 3980 5980 7960 8090 9680 10300
2026-04-23 12:00 3.69 1680 10800 (2016) 2250 (2022) 5930 2290 2590 3620 3980 5980 7960 8090 9680 10300
2026-04-23 11:00 3.74 1800 10800 (2016) 2250 (2022) 5930 2290 2590 3620 3980 5980 7960 8090 9680 10300
2026-04-23 10:00 3.80 1950 10800 (2016) 2250 (2022) 5930 2290 2590 3620 3980 5980 7960 8090 9680 10300
2026-04-23 09:00 3.87 2140 10800 (2016) 2250 (2022) 5930 2290 2590 3620 3980 5980 7960 8090 9680 10300
2026-04-23 08:00 3.95 2370 10800 (2016) 2250 (2022) 5930 2290 2590 3620 3980 5980 7960 8090 9680 10300
2026-04-23 07:00 4.01 2540 10800 (2016) 2250 (2022) 5930 2290 2590 3620 3980 5980 7960 8090 9680 10300
2026-04-23 06:00 4.08 2760 10800 (2016) 2250 (2022) 5930 2290 2590 3620 3980 5980 7960 8090 9680 10300
2026-04-23 05:00 4.12 2890 10800 (2016) 2250 (2022) 5930 2290 2590 3620 3980 5980 7960 8090 9680 10300
2026-04-23 04:00 4.19 3130 10800 (2016) 2250 (2022) 5930 2290 2590 3620 3980 5980 7960 8090 9680 10300
2026-04-23 03:00 4.24 3300 10800 (2016) 2250 (2022) 5930 2290 2590 3620 3980 5980 7960 8090 9680 10300
2026-04-23 02:00 4.29 3480 10800 (2016) 2250 (2022) 5930 2290 2590 3620 3980 5980 7960 8090 9680 10300
2026-04-23 01:00 4.30 3520 10800 (2016) 2250 (2022) 5930 2290 2590 3620 3980 5980 7960 8090 9680 10300
2026-04-23 00:00 4.34 3670 10800 (2016) 2250 (2022) 5930 2290 2590 3620 3980 5980 7960 8090 9680 10300
2026-04-22 23:00 4.36 3740 10800 (2016) 2250 (2022) 5930 2290 2590 3620 3980 5980 7960 8090 9680 10300
2026-04-22 22:00 4.37 3780 11600 (2016) 2330 (2004) 6050 2490 2820 4050 4510 5560 7500 7920 10000 10800
2026-04-22 21:00 4.37 3780 11600 (2016) 2330 (2004) 6050 2490 2820 4050 4510 5560 7500 7920 10000 10800
2026-04-22 20:00 4.33 3630 11600 (2016) 2330 (2004) 6050 2490 2820 4050 4510 5560 7500 7920 10000 10800
2026-04-22 19:00 4.28 3440 11600 (2016) 2330 (2004) 6050 2490 2820 4050 4510 5560 7500 7920 10000 10800
2026-04-22 18:00 4.19 3130 11600 (2016) 2330 (2004) 6050 2490 2820 4050 4510 5560 7500 7920 10000 10800
2026-04-22 17:00 4.03 2600 11600 (2016) 2330 (2004) 6050 2490 2820 4050 4510 5560 7500 7920 10000 10800
2026-04-22 16:00 3.81 1980 11600 (2016) 2330 (2004) 6050 2490 2820 4050 4510 5560 7500 7920 10000 10800
2026-04-22 15:00 3.65 1580 11600 (2016) 2330 (2004) 6050 2490 2820 4050 4510 5560 7500 7920 10000 10800
2026-04-22 14:00 3.56 1390 11600 (2016) 2330 (2004) 6050 2490 2820 4050 4510 5560 7500 7920 10000 10800
2026-04-22 13:00 3.55 1360 11600 (2016) 2330 (2004) 6050 2490 2820 4050 4510 5560 7500 7920 10000 10800
2026-04-22 12:00 3.58 1430 11600 (2016) 2330 (2004) 6050 2490 2820 4050 4510 5560 7500 7920 10000 10800
2026-04-22 11:00 3.61 1490 11600 (2016) 2330 (2004) 6050 2490 2820 4050 4510 5560 7500 7920 10000 10800
2026-04-22 10:00 3.67 1630 11600 (2016) 2330 (2004) 6050 2490 2820 4050 4510 5560 7500 7920 10000 10800
2026-04-22 09:00 3.71 1730 11600 (2016) 2330 (2004) 6050 2490 2820 4050 4510 5560 7500 7920 10000 10800
2026-04-22 08:00 3.77 1870 11600 (2016) 2330 (2004) 6050 2490 2820 4050 4510 5560 7500 7920 10000 10800
2026-04-22 07:00 3.81 1980 11600 (2016) 2330 (2004) 6050 2490 2820 4050 4510 5560 7500 7920 10000 10800
2026-04-22 06:00 3.85 2080 11600 (2016) 2330 (2004) 6050 2490 2820 4050 4510 5560 7500 7920 10000 10800
2026-04-22 05:00 3.88 2170 11600 (2016) 2330 (2004) 6050 2490 2820 4050 4510 5560 7500 7920 10000 10800
2026-04-22 04:00 3.90 2220 11600 (2016) 2330 (2004) 6050 2490 2820 4050 4510 5560 7500 7920 10000 10800
2026-04-22 03:00 3.91 2250 11600 (2016) 2330 (2004) 6050 2490 2820 4050 4510 5560 7500 7920 10000 10800
2026-04-22 02:00 3.90 2220 11600 (2016) 2330 (2004) 6050 2490 2820 4050 4510 5560 7500 7920 10000 10800
2026-04-22 01:00 3.90 2220 11600 (2016) 2330 (2004) 6050 2490 2820 4050 4510 5560 7500 7920 10000 10800
2026-04-22 00:00 3.88 2170 11600 (2016) 2330 (2004) 6050 2490 2820 4050 4510 5560 7500 7920 10000 10800
2026-04-21 23:00 3.85 2080 11600 (2016) 2330 (2004) 6050 2490 2820 4050 4510 5560 7500 7920 10000 10800
2026-04-21 22:00 3.80 1950 12400 (2016) 2250 (2022) 5860 2300 2450 3580 4110 5740 7180 8210 10100 11700
2026-04-21 21:00 3.75 1820 12400 (2016) 2250 (2022) 5860 2300 2450 3580 4110 5740 7180 8210 10100 11700
2026-04-21 20:00 3.69 1680 12400 (2016) 2250 (2022) 5860 2300 2450 3580 4110 5740 7180 8210 10100 11700
2026-04-21 19:00 3.65 1580 12400 (2016) 2250 (2022) 5860 2300 2450 3580 4110 5740 7180 8210 10100 11700
2026-04-21 18:00 3.61 1490 12400 (2016) 2250 (2022) 5860 2300 2450 3580 4110 5740 7180 8210 10100 11700
2026-04-21 17:00 3.59 1450 12400 (2016) 2250 (2022) 5860 2300 2450 3580 4110 5740 7180 8210 10100 11700
2026-04-21 16:00 3.58 1430 12400 (2016) 2250 (2022) 5860 2300 2450 3580 4110 5740 7180 8210 10100 11700
2026-04-21 15:00 3.60 1470 12400 (2016) 2250 (2022) 5860 2300 2450 3580 4110 5740 7180 8210 10100 11700
2026-04-21 14:00 3.63 1540 12400 (2016) 2250 (2022) 5860 2300 2450 3580 4110 5740 7180 8210 10100 11700
2026-04-21 13:00 3.67 1630 12400 (2016) 2250 (2022) 5860 2300 2450 3580 4110 5740 7180 8210 10100 11700
2026-04-21 12:00 3.73 1770 12400 (2016) 2250 (2022) 5860 2300 2450 3580 4110 5740 7180 8210 10100 11700
2026-04-21 11:00 3.79 1930 12400 (2016) 2250 (2022) 5860 2300 2450 3580 4110 5740 7180 8210 10100 11700
2026-04-21 10:00 3.86 2110 12400 (2016) 2250 (2022) 5860 2300 2450 3580 4110 5740 7180 8210 10100 11700
2026-04-21 09:00 3.93 2310 12400 (2016) 2250 (2022) 5860 2300 2450 3580 4110 5740 7180 8210 10100 11700
2026-04-21 08:00 4.00 2510 12400 (2016) 2250 (2022) 5860 2300 2450 3580 4110 5740 7180 8210 10100 11700
2026-04-21 07:00 4.06 2700 12400 (2016) 2250 (2022) 5860 2300 2450 3580 4110 5740 7180 8210 10100 11700
2026-04-21 06:00 4.12 2890 12400 (2016) 2250 (2022) 5860 2300 2450 3580 4110 5740 7180 8210 10100 11700
2026-04-21 05:00 4.18 3090 12400 (2016) 2250 (2022) 5860 2300 2450 3580 4110 5740 7180 8210 10100 11700
2026-04-21 04:00 4.23 3260 12400 (2016) 2250 (2022) 5860 2300 2450 3580 4110 5740 7180 8210 10100 11700
2026-04-21 03:00 4.26 3370 12400 (2016) 2250 (2022) 5860 2300 2450 3580 4110 5740 7180 8210 10100 11700
2026-04-21 02:00 4.30 3520 12400 (2016) 2250 (2022) 5860 2300 2450 3580 4110 5740 7180 8210 10100 11700
2026-04-21 01:00 4.31 3550 12400 (2016) 2250 (2022) 5860 2300 2450 3580 4110 5740 7180 8210 10100 11700
2026-04-21 00:00 4.32 3590 12400 (2016) 2250 (2022) 5860 2300 2450 3580 4110 5740 7180 8210 10100 11700
2026-04-20 23:00 4.30 3520 12400 (2016) 2250 (2022) 5860 2300 2450 3580 4110 5740 7180 8210 10100 11700
2026-04-20 22:00 4.30 3520 13100 (2016) 2570 (2004) 6170 2760 3160 3730 4210 5750 8120 8580 10300 12100
2026-04-20 21:00 4.27 3410 13100 (2016) 2570 (2004) 6170 2760 3160 3730 4210 5750 8120 8580 10300 12100
2026-04-20 20:00 4.20 3160 13100 (2016) 2570 (2004) 6170 2760 3160 3730 4210 5750 8120 8580 10300 12100
2026-04-20 19:00 4.10 2830 13100 (2016) 2570 (2004) 6170 2760 3160 3730 4210 5750 8120 8580 10300 12100
2026-04-20 18:00 3.97 2420 13100 (2016) 2570 (2004) 6170 2760 3160 3730 4210 5750 8120 8580 10300 12100
2026-04-20 17:00 3.83 2030 13100 (2016) 2570 (2004) 6170 2760 3160 3730 4210 5750 8120 8580 10300 12100
2026-04-20 16:00 3.73 1770 13100 (2016) 2570 (2004) 6170 2760 3160 3730 4210 5750 8120 8580 10300 12100
2026-04-20 15:00 3.68 1650 13100 (2016) 2570 (2004) 6170 2760 3160 3730 4210 5750 8120 8580 10300 12100
2026-04-20 14:00 3.68 1650 13100 (2016) 2570 (2004) 6170 2760 3160 3730 4210 5750 8120 8580 10300 12100
2026-04-20 13:00 3.72 1750 13100 (2016) 2570 (2004) 6170 2760 3160 3730 4210 5750 8120 8580 10300 12100
2026-04-20 12:00 3.76 1850 13100 (2016) 2570 (2004) 6170 2760 3160 3730 4210 5750 8120 8580 10300 12100
2026-04-20 11:00 3.80 1950 13100 (2016) 2570 (2004) 6170 2760 3160 3730 4210 5750 8120 8580 10300 12100
2026-04-20 10:00 3.87 2140 13100 (2016) 2570 (2004) 6170 2760 3160 3730 4210 5750 8120 8580 10300 12100
2026-04-20 09:00 3.93 2310 13100 (2016) 2570 (2004) 6170 2760 3160 3730 4210 5750 8120 8580 10300 12100
2026-04-20 08:00 3.98 2450 13100 (2016) 2570 (2004) 6170 2760 3160 3730 4210 5750 8120 8580 10300 12100
2026-04-20 07:00 4.02 2570 13100 (2016) 2570 (2004) 6170 2760 3160 3730 4210 5750 8120 8580 10300 12100
2026-04-20 06:00 4.06 2700 13100 (2016) 2570 (2004) 6170 2760 3160 3730 4210 5750 8120 8580 10300 12100
2026-04-20 05:00 4.07 2730 13100 (2016) 2570 (2004) 6170 2760 3160 3730 4210 5750 8120 8580 10300 12100
2026-04-20 04:00 4.09 2790 13100 (2016) 2570 (2004) 6170 2760 3160 3730 4210 5750 8120 8580 10300 12100
2026-04-20 03:00 4.09 2790 13100 (2016) 2570 (2004) 6170 2760 3160 3730 4210 5750 8120 8580 10300 12100
2026-04-20 02:00 4.08 2760 13100 (2016) 2570 (2004) 6170 2760 3160 3730 4210 5750 8120 8580 10300 12100
2026-04-20 01:00 4.09 2790 13100 (2016) 2570 (2004) 6170 2760 3160 3730 4210 5750 8120 8580 10300 12100
2026-04-20 00:00 4.08 2760 13100 (2016) 2570 (2004) 6170 2760 3160 3730 4210 5750 8120 8580 10300 12100
2026-04-19 23:00 4.09 2790 13100 (2016) 2570 (2004) 6170 2760 3160 3730 4210 5750 8120 8580 10300 12100
2026-04-19 22:00 4.10 2830 15100 (2016) 2580 (2004) 6280 2770 3200 3590 3960 5930 8230 9180 10100 12100
2026-04-19 21:00 4.11 2860 15100 (2016) 2580 (2004) 6280 2770 3200 3590 3960 5930 8230 9180 10100 12100
2026-04-19 20:00 4.12 2890 15100 (2016) 2580 (2004) 6280 2770 3200 3590 3960 5930 8230 9180 10100 12100
2026-04-19 19:00 4.11 2860 15100 (2016) 2580 (2004) 6280 2770 3200 3590 3960 5930 8230 9180 10100 12100
2026-04-19 18:00 4.12 2890 15100 (2016) 2580 (2004) 6280 2770 3200 3590 3960 5930 8230 9180 10100 12100
2026-04-19 17:00 4.08 2760 15100 (2016) 2580 (2004) 6280 2770 3200 3590 3960 5930 8230 9180 10100 12100
2026-04-19 16:00 4.04 2640 15100 (2016) 2580 (2004) 6280 2770 3200 3590 3960 5930 8230 9180 10100 12100
2026-04-19 15:00 3.98 2450 15100 (2016) 2580 (2004) 6280 2770 3200 3590 3960 5930 8230 9180 10100 12100
2026-04-19 14:00 3.90 2220 15100 (2016) 2580 (2004) 6280 2770 3200 3590 3960 5930 8230 9180 10100 12100
2026-04-19 13:00 3.83 2030 15100 (2016) 2580 (2004) 6280 2770 3200 3590 3960 5930 8230 9180 10100 12100
2026-04-19 12:00 3.80 1950 15100 (2016) 2580 (2004) 6280 2770 3200 3590 3960 5930 8230 9180 10100 12100
2026-04-19 11:00 3.79 1930 15100 (2016) 2580 (2004) 6280 2770 3200 3590 3960 5930 8230 9180 10100 12100
2026-04-19 10:00 3.80 1950 15100 (2016) 2580 (2004) 6280 2770 3200 3590 3960 5930 8230 9180 10100 12100
2026-04-19 09:00 3.81 1980 15100 (2016) 2580 (2004) 6280 2770 3200 3590 3960 5930 8230 9180 10100 12100
2026-04-19 08:00 3.82 2000 15100 (2016) 2580 (2004) 6280 2770 3200 3590 3960 5930 8230 9180 10100 12100
2026-04-19 07:00 3.82 2000 15100 (2016) 2580 (2004) 6280 2770 3200 3590 3960 5930 8230 9180 10100 12100
2026-04-19 06:00 3.82 2000 15100 (2016) 2580 (2004) 6280 2770 3200 3590 3960 5930 8230 9180 10100 12100
2026-04-19 05:00 3.81 1980 15100 (2016) 2580 (2004) 6280 2770 3200 3590 3960 5930 8230 9180 10100 12100
2026-04-19 04:00 3.77 1870 15100 (2016) 2580 (2004) 6280 2770 3200 3590 3960 5930 8230 9180 10100 12100
2026-04-19 03:00 3.73 1770 15100 (2016) 2580 (2004) 6280 2770 3200 3590 3960 5930 8230 9180 10100 12100
2026-04-19 02:00 3.69 1680 15100 (2016) 2580 (2004) 6280 2770 3200 3590 3960 5930 8230 9180 10100 12100
2026-04-19 01:00 3.64 1560 15100 (2016) 2580 (2004) 6280 2770 3200 3590 3960 5930 8230 9180 10100 12100
2026-04-19 00:00 3.59 1450 15100 (2016) 2580 (2004) 6280 2770 3200 3590 3960 5930 8230 9180 10100 12100
2026-04-18 23:00 3.55 1360 15100 (2016) 2580 (2004) 6280 2770 3200 3590 3960 5930 8230 9180 10100 12100
2026-04-18 22:00 3.51 1280 11500 (1998) 2760 (2004) 6150 2900 3290 3840 3880 5900 7870 8370 10500 11000
2026-04-18 21:00 3.48 1220 11500 (1998) 2760 (2004) 6150 2900 3290 3840 3880 5900 7870 8370 10500 11000
2026-04-18 20:00 3.47 1200 11500 (1998) 2760 (2004) 6150 2900 3290 3840 3880 5900 7870 8370 10500 11000
2026-04-18 19:00 3.46 1180 11500 (1998) 2760 (2004) 6150 2900 3290 3840 3880 5900 7870 8370 10500 11000
2026-04-18 18:00 3.46 1180 11500 (1998) 2760 (2004) 6150 2900 3290 3840 3880 5900 7870 8370 10500 11000
2026-04-18 17:00 3.47 1200 11500 (1998) 2760 (2004) 6150 2900 3290 3840 3880 5900 7870 8370 10500 11000
2026-04-18 16:00 3.47 1200 11500 (1998) 2760 (2004) 6150 2900 3290 3840 3880 5900 7870 8370 10500 11000
2026-04-18 15:00 3.49 1240 11500 (1998) 2760 (2004) 6150 2900 3290 3840 3880 5900 7870 8370 10500 11000
2026-04-18 14:00 3.51 1280 11500 (1998) 2760 (2004) 6150 2900 3290 3840 3880 5900 7870 8370 10500 11000
2026-04-18 13:00 3.52 1300 11500 (1998) 2760 (2004) 6150 2900 3290 3840 3880 5900 7870 8370 10500 11000
2026-04-18 12:00 3.56 1390 11500 (1998) 2760 (2004) 6150 2900 3290 3840 3880 5900 7870 8370 10500 11000
2026-04-18 11:00 3.60 1470 11500 (1998) 2760 (2004) 6150 2900 3290 3840 3880 5900 7870 8370 10500 11000
2026-04-18 10:00 3.63 1540 11500 (1998) 2760 (2004) 6150 2900 3290 3840 3880 5900 7870 8370 10500 11000
2026-04-18 09:00 3.68 1650 11500 (1998) 2760 (2004) 6150 2900 3290 3840 3880 5900 7870 8370 10500 11000
2026-04-18 08:00 3.73 1770 11500 (1998) 2760 (2004) 6150 2900 3290 3840 3880 5900 7870 8370 10500 11000
2026-04-18 07:00 3.79 1930 11500 (1998) 2760 (2004) 6150 2900 3290 3840 3880 5900 7870 8370 10500 11000
2026-04-18 06:00 3.85 2080 11500 (1998) 2760 (2004) 6150 2900 3290 3840 3880 5900 7870 8370 10500 11000
2026-04-18 05:00 3.91 2250 11500 (1998) 2760 (2004) 6150 2900 3290 3840 3880 5900 7870 8370 10500 11000
2026-04-18 04:00 3.97 2420 11500 (1998) 2760 (2004) 6150 2900 3290 3840 3880 5900 7870 8370 10500 11000
2026-04-18 03:00 4.03 2600 11500 (1998) 2760 (2004) 6150 2900 3290 3840 3880 5900 7870 8370 10500 11000
2026-04-18 02:00 4.07 2730 11500 (1998) 2760 (2004) 6150 2900 3290 3840 3880 5900 7870 8370 10500 11000
2026-04-18 01:00 4.10 2830 11500 (1998) 2760 (2004) 6150 2900 3290 3840 3880 5900 7870 8370 10500 11000
2026-04-18 00:00 4.14 2960 11500 (1998) 2760 (2004) 6150 2900 3290 3840 3880 5900 7870 8370 10500 11000
2026-04-17 23:00 4.15 2990 11500 (1998) 2760 (2004) 6150 2900 3290 3840 3880 5900 7870 8370 10500 11000
2026-04-17 22:00 4.15 2990 12100 (1998) 2490 (2023) 6160 2710 3100 3940 4030 5580 7600 8300 10900 11900
2026-04-17 21:00 4.12 2890 12100 (1998) 2490 (2023) 6160 2710 3100 3940 4030 5580 7600 8300 10900 11900
2026-04-17 20:00 4.02 2570 12100 (1998) 2490 (2023) 6160 2710 3100 3940 4030 5580 7600 8300 10900 11900
2026-04-17 19:00 3.88 2170 12100 (1998) 2490 (2023) 6160 2710 3100 3940 4030 5580 7600 8300 10900 11900
2026-04-17 18:00 3.73 1770 12100 (1998) 2490 (2023) 6160 2710 3100 3940 4030 5580 7600 8300 10900 11900
2026-04-17 17:00 3.62 1520 12100 (1998) 2490 (2023) 6160 2710 3100 3940 4030 5580 7600 8300 10900 11900
2026-04-17 16:00 3.57 1410 12100 (1998) 2490 (2023) 6160 2710 3100 3940 4030 5580 7600 8300 10900 11900
2026-04-17 15:00 3.55 1360 12100 (1998) 2490 (2023) 6160 2710 3100 3940 4030 5580 7600 8300 10900 11900
2026-04-17 14:00 3.58 1430 12100 (1998) 2490 (2023) 6160 2710 3100 3940 4030 5580 7600 8300 10900 11900
2026-04-17 13:00 3.62 1520 12100 (1998) 2490 (2023) 6160 2710 3100 3940 4030 5580 7600 8300 10900 11900
2026-04-17 12:00 3.66 1610 12100 (1998) 2490 (2023) 6160 2710 3100 3940 4030 5580 7600 8300 10900 11900
2026-04-17 11:00 3.73 1770 12100 (1998) 2490 (2023) 6160 2710 3100 3940 4030 5580 7600 8300 10900 11900
2026-04-17 10:00 3.80 1950 12100 (1998) 2490 (2023) 6160 2710 3100 3940 4030 5580 7600 8300 10900 11900
2026-04-17 09:00 3.88 2170 12100 (1998) 2490 (2023) 6160 2710 3100 3940 4030 5580 7600 8300 10900 11900
2026-04-17 08:00 3.94 2340 12100 (1998) 2490 (2023) 6160 2710 3100 3940 4030 5580 7600 8300 10900 11900
2026-04-17 07:00 4.00 2510 12100 (1998) 2490 (2023) 6160 2710 3100 3940 4030 5580 7600 8300 10900 11900
2026-04-17 06:00 4.06 2700 12100 (1998) 2490 (2023) 6160 2710 3100 3940 4030 5580 7600 8300 10900 11900
2026-04-17 05:00 4.11 2860 12100 (1998) 2490 (2023) 6160 2710 3100 3940 4030 5580 7600 8300 10900 11900
2026-04-17 04:00 4.16 3020 12100 (1998) 2490 (2023) 6160 2710 3100 3940 4030 5580 7600 8300 10900 11900
2026-04-17 03:00 4.19 3130 12100 (1998) 2490 (2023) 6160 2710 3100 3940 4030 5580 7600 8300 10900 11900
2026-04-17 02:00 4.22 3230 12100 (1998) 2490 (2023) 6160 2710 3100 3940 4030 5580 7600 8300 10900 11900
2026-04-17 01:00 4.23 3260 12100 (1998) 2490 (2023) 6160 2710 3100 3940 4030 5580 7600 8300 10900 11900
2026-04-17 00:00 4.19 3130 12100 (1998) 2490 (2023) 6160 2710 3100 3940 4030 5580 7600 8300 10900 11900
2026-04-16 23:00 4.12 2890 12100 (1998) 2490 (2023) 6160 2710 3100 3940 4030 5580 7600 8300 10900 11900
2026-04-16 22:00 4.00 2510 15900 (1999) 2200 (2023) 6260 2410 3140 3920 4330 6160 7300 7630 10100 14000
2026-04-16 21:00 3.83 2030 15900 (1999) 2200 (2023) 6260 2410 3140 3920 4330 6160 7300 7630 10100 14000
2026-04-16 20:00 3.69 1680 15900 (1999) 2200 (2023) 6260 2410 3140 3920 4330 6160 7300 7630 10100 14000
2026-04-16 19:00 3.61 1490 15900 (1999) 2200 (2023) 6260 2410 3140 3920 4330 6160 7300 7630 10100 14000
2026-04-16 18:00 3.58 1430 15900 (1999) 2200 (2023) 6260 2410 3140 3920 4330 6160 7300 7630 10100 14000
2026-04-16 17:00 3.59 1450 15900 (1999) 2200 (2023) 6260 2410 3140 3920 4330 6160 7300 7630 10100 14000
2026-04-16 16:00 3.60 1470 15900 (1999) 2200 (2023) 6260 2410 3140 3920 4330 6160 7300 7630 10100 14000
2026-04-16 15:00 3.63 1540 15900 (1999) 2200 (2023) 6260 2410 3140 3920 4330 6160 7300 7630 10100 14000
2026-04-16 14:00 3.66 1610 15900 (1999) 2200 (2023) 6260 2410 3140 3920 4330 6160 7300 7630 10100 14000
2026-04-16 13:00 3.74 2700 15900 (1999) 2200 (2023) 6260 2410 3140 3920 4330 6160 7300 7630 10100 14000
2026-04-16 12:00 3.78 2830 15900 (1999) 2200 (2023) 6260 2410 3140 3920 4330 6160 7300 7630 10100 14000
2026-04-16 11:00 3.82 2960 15900 (1999) 2200 (2023) 6260 2410 3140 3920 4330 6160 7300 7630 10100 14000
2026-04-16 10:00 3.88 3160 15900 (1999) 2200 (2023) 6260 2410 3140 3920 4330 6160 7300 7630 10100 14000
2026-04-16 09:00 3.94 3370 15900 (1999) 2200 (2023) 6260 2410 3140 3920 4330 6160 7300 7630 10100 14000
2026-04-16 08:00 4.01 3630 15900 (1999) 2200 (2023) 6260 2410 3140 3920 4330 6160 7300 7630 10100 14000
2026-04-16 07:00 4.08 3900 15900 (1999) 2200 (2023) 6260 2410 3140 3920 4330 6160 7300 7630 10100 14000
2026-04-16 06:00 4.15 4170 15900 (1999) 2200 (2023) 6260 2410 3140 3920 4330 6160 7300 7630 10100 14000
2026-04-16 05:00 4.22 4460 15900 (1999) 2200 (2023) 6260 2410 3140 3920 4330 6160 7300 7630 10100 14000
2026-04-16 04:00 4.27 4680 15900 (1999) 2200 (2023) 6260 2410 3140 3920 4330 6160 7300 7630 10100 14000
2026-04-16 03:00 4.32 4900 15900 (1999) 2200 (2023) 6260 2410 3140 3920 4330 6160 7300 7630 10100 14000
2026-04-16 02:00 4.36 5080 15900 (1999) 2200 (2023) 6260 2410 3140 3920 4330 6160 7300 7630 10100 14000
2026-04-16 01:00 4.39 5220 15900 (1999) 2200 (2023) 6260 2410 3140 3920 4330 6160 7300 7630 10100 14000
2026-04-16 00:00 4.40 5260 15900 (1999) 2200 (2023) 6260 2410 3140 3920 4330 6160 7300 7630 10100 14000
2026-04-15 23:00 4.41 5310 15900 (1999) 2200 (2023) 6260 2410 3140 3920 4330 6160 7300 7630 10100 14000
2026-04-15 22:00 4.40 5260 12100 (1999) 2270 (2003) 6020 2580 3170 3860 4240 5780 7190 7500 10800 11900
2026-04-15 21:00 4.37 5130 12100 (1999) 2270 (2003) 6020 2580 3170 3860 4240 5780 7190 7500 10800 11900
2026-04-15 20:00 4.30 4810 12100 (1999) 2270 (2003) 6020 2580 3170 3860 4240 5780 7190 7500 10800 11900
2026-04-15 19:00 4.20 4380 12100 (1999) 2270 (2003) 6020 2580 3170 3860 4240 5780 7190 7500 10800 11900
2026-04-15 18:00 4.07 3860 12100 (1999) 2270 (2003) 6020 2580 3170 3860 4240 5780 7190 7500 10800 11900
2026-04-15 17:00 3.94 3370 12100 (1999) 2270 (2003) 6020 2580 3170 3860 4240 5780 7190 7500 10800 11900
2026-04-15 16:00 3.85 3060 12100 (1999) 2270 (2003) 6020 2580 3170 3860 4240 5780 7190 7500 10800 11900
2026-04-15 15:00 3.78 2830 12100 (1999) 2270 (2003) 6020 2580 3170 3860 4240 5780 7190 7500 10800 11900
2026-04-15 14:00 3.74 2700 12100 (1999) 2270 (2003) 6020 2580 3170 3860 4240 5780 7190 7500 10800 11900
2026-04-15 13:00 3.76 2760 12100 (1999) 2270 (2003) 6020 2580 3170 3860 4240 5780 7190 7500 10800 11900
2026-04-15 12:00 3.79 2860 12100 (1999) 2270 (2003) 6020 2580 3170 3860 4240 5780 7190 7500 10800 11900
2026-04-15 11:00 3.83 2990 12100 (1999) 2270 (2003) 6020 2580 3170 3860 4240 5780 7190 7500 10800 11900
2026-04-15 10:00 3.88 3160 12100 (1999) 2270 (2003) 6020 2580 3170 3860 4240 5780 7190 7500 10800 11900
2026-04-15 09:00 3.94 3370 12100 (1999) 2270 (2003) 6020 2580 3170 3860 4240 5780 7190 7500 10800 11900
2026-04-15 08:00 4.02 3670 12100 (1999) 2270 (2003) 6020 2580 3170 3860 4240 5780 7190 7500 10800 11900
2026-04-15 07:00 4.09 3930 12100 (1999) 2270 (2003) 6020 2580 3170 3860 4240 5780 7190 7500 10800 11900
2026-04-15 06:00 4.16 4220 12100 (1999) 2270 (2003) 6020 2580 3170 3860 4240 5780 7190 7500 10800 11900
2026-04-15 05:00 4.23 4510 12100 (1999) 2270 (2003) 6020 2580 3170 3860 4240 5780 7190 7500 10800 11900
2026-04-15 04:00 4.29 4770 12100 (1999) 2270 (2003) 6020 2580 3170 3860 4240 5780 7190 7500 10800 11900
2026-04-15 03:00 4.33 4940 12100 (1999) 2270 (2003) 6020 2580 3170 3860 4240 5780 7190 7500 10800 11900
2026-04-15 02:00 4.37 5130 12100 (1999) 2270 (2003) 6020 2580 3170 3860 4240 5780 7190 7500 10800 11900
2026-04-15 01:00 4.41 5310 12100 (1999) 2270 (2003) 6020 2580 3170 3860 4240 5780 7190 7500 10800 11900
2026-04-15 00:00 4.43 5410 12100 (1999) 2270 (2003) 6020 2580 3170 3860 4240 5780 7190 7500 10800 11900
2026-04-14 23:00 4.45 5500 12100 (1999) 2270 (2003) 6020 2580 3170 3860 4240 5780 7190 7500 10800 11900
2026-04-14 22:00 4.44 5450 12600 (2001) 3130 (2022) 5930 3150 3280 3920 4190 5440 6840 7270 9090 12100
2026-04-14 21:00 4.41 5310 12600 (2001) 3130 (2022) 5930 3150 3280 3920 4190 5440 6840 7270 9090 12100
2026-04-14 20:00 4.36 5080 12600 (2001) 3130 (2022) 5930 3150 3280 3920 4190 5440 6840 7270 9090 12100
2026-04-14 19:00 4.24 4550 12600 (2001) 3130 (2022) 5930 3150 3280 3920 4190 5440 6840 7270 9090 12100
2026-04-14 18:00 4.10 3970 12600 (2001) 3130 (2022) 5930 3150 3280 3920 4190 5440 6840 7270 9090 12100
2026-04-14 17:00 3.97 3480 12600 (2001) 3130 (2022) 5930 3150 3280 3920 4190 5440 6840 7270 9090 12100
2026-04-14 16:00 3.88 3160 12600 (2001) 3130 (2022) 5930 3150 3280 3920 4190 5440 6840 7270 9090 12100
2026-04-14 15:00 3.83 2990 12600 (2001) 3130 (2022) 5930 3150 3280 3920 4190 5440 6840 7270 9090 12100
2026-04-14 14:00 3.83 2990 12600 (2001) 3130 (2022) 5930 3150 3280 3920 4190 5440 6840 7270 9090 12100
2026-04-14 13:00 3.84 3020 12600 (2001) 3130 (2022) 5930 3150 3280 3920 4190 5440 6840 7270 9090 12100
2026-04-14 12:00 3.87 3130 12600 (2001) 3130 (2022) 5930 3150 3280 3920 4190 5440 6840 7270 9090 12100
2026-04-14 11:00 3340 12600 (2001) 3130 (2022) 5930 3150 3280 3920 4190 5440 6840 7270 9090 12100
2026-04-14 10:00 3.99 3550 12600 (2001) 3130 (2022) 5930 3150 3280 3920 4190 5440 6840 7270 9090 12100
2026-04-14 08:45 4.07 3860 12600 (2001) 3130 (2022) 5930 3150 3280 3920 4190 5440 6840 7270 9090 12100
2026-04-14 08:00 4.12 4050 12600 (2001) 3130 (2022) 5930 3150 3280 3920 4190 5440 6840 7270 9090 12100
2026-04-14 07:00 4.19 4340 12600 (2001) 3130 (2022) 5930 3150 3280 3920 4190 5440 6840 7270 9090 12100
2026-04-14 06:00 4.25 4590 12600 (2001) 3130 (2022) 5930 3150 3280 3920 4190 5440 6840 7270 9090 12100
2026-04-14 05:00 4.31 4850 12600 (2001) 3130 (2022) 5930 3150 3280 3920 4190 5440 6840 7270 9090 12100
2026-04-14 04:00 4.35 5030 12600 (2001) 3130 (2022) 5930 3150 3280 3920 4190 5440 6840 7270 9090 12100
2026-04-14 03:00 4.39 5220 12600 (2001) 3130 (2022) 5930 3150 3280 3920 4190 5440 6840 7270 9090 12100
2026-04-14 02:00 4.41 5310 12600 (2001) 3130 (2022) 5930 3150 3280 3920 4190 5440 6840 7270 9090 12100
2026-04-14 01:00 4.42 5360 12600 (2001) 3130 (2022) 5930 3150 3280 3920 4190 5440 6840 7270 9090 12100
2026-04-14 00:00 4.42 5360 12600 (2001) 3130 (2022) 5930 3150 3280 3920 4190 5440 6840 7270 9090 12100
2026-04-13 23:00 4.40 5260 12600 (2001) 3130 (2022) 5930 3150 3280 3920 4190 5440 6840 7270 9090 12100
2026-04-13 22:00 4.36 5080 13000 (2001) 2470 (2023) 6060 2690 3350 4210 4420 5440 7420 7490 9650 12300
2026-04-13 21:00 4.27 4680 13000 (2001) 2470 (2023) 6060 2690 3350 4210 4420 5440 7420 7490 9650 12300
2026-04-13 20:00 4.16 4220 13000 (2001) 2470 (2023) 6060 2690 3350 4210 4420 5440 7420 7490 9650 12300
2026-04-13 19:00 4.04 3740 13000 (2001) 2470 (2023) 6060 2690 3350 4210 4420 5440 7420 7490 9650 12300
2026-04-13 18:00 3.94 3370 13000 (2001) 2470 (2023) 6060 2690 3350 4210 4420 5440 7420 7490 9650 12300
2026-04-13 17:00 3.84 3020 13000 (2001) 2470 (2023) 6060 2690 3350 4210 4420 5440 7420 7490 9650 12300
2026-04-13 16:00 3.79 2860 13000 (2001) 2470 (2023) 6060 2690 3350 4210 4420 5440 7420 7490 9650 12300
2026-04-13 15:00 3.75 2730 13000 (2001) 2470 (2023) 6060 2690 3350 4210 4420 5440 7420 7490 9650 12300
2026-04-13 14:00 3.74 2700 13000 (2001) 2470 (2023) 6060 2690 3350 4210 4420 5440 7420 7490 9650 12300
2026-04-13 13:00 3.74 2700 13000 (2001) 2470 (2023) 6060 2690 3350 4210 4420 5440 7420 7490 9650 12300
2026-04-13 12:00 3.76 2760 13000 (2001) 2470 (2023) 6060 2690 3350 4210 4420 5440 7420 7490 9650 12300
2026-04-13 11:00 3.79 2860 13000 (2001) 2470 (2023) 6060 2690 3350 4210 4420 5440 7420 7490 9650 12300
2026-04-13 10:00 3.82 2960 13000 (2001) 2470 (2023) 6060 2690 3350 4210 4420 5440 7420 7490 9650 12300
2026-04-13 09:00 3.85 3060 13000 (2001) 2470 (2023) 6060 2690 3350 4210 4420 5440 7420 7490 9650 12300
2026-04-13 08:00 3.89 3190 13000 (2001) 2470 (2023) 6060 2690 3350 4210 4420 5440 7420 7490 9650 12300
2026-04-13 07:00 3.93 3340 13000 (2001) 2470 (2023) 6060 2690 3350 4210 4420 5440 7420 7490 9650 12300
2026-04-13 06:00 3.97 3480 13000 (2001) 2470 (2023) 6060 2690 3350 4210 4420 5440 7420 7490 9650 12300
2026-04-13 05:00 4.01 3630 13000 (2001) 2470 (2023) 6060 2690 3350 4210 4420 5440 7420 7490 9650 12300
2026-04-13 04:00 4.05 3780 13000 (2001) 2470 (2023) 6060 2690 3350 4210 4420 5440 7420 7490 9650 12300
2026-04-13 03:00 4.08 3900 13000 (2001) 2470 (2023) 6060 2690 3350 4210 4420 5440 7420 7490 9650 12300
2026-04-13 02:00 4.11 4010 13000 (2001) 2470 (2023) 6060 2690 3350 4210 4420 5440 7420 7490 9650 12300
2026-04-13 01:00 4.14 4130 13000 (2001) 2470 (2023) 6060 2690 3350 4210 4420 5440 7420 7490 9650 12300
2026-04-13 00:00 4.17 4260 13000 (2001) 2470 (2023) 6060 2690 3350 4210 4420 5440 7420 7490 9650 12300
2026-04-12 23:00 4.19 4340 13000 (2001) 2470 (2023) 6060 2690 3350 4210 4420 5440 7420 7490 9650 12300
2026-04-12 22:00 4.22 4460 13100 (1998) 2060 (2023) 6040 2710 3260 4280 4400 5140 7720 7920 9370 12500
2026-04-12 21:00 4.25 4590 13100 (1998) 2060 (2023) 6040 2710 3260 4280 4400 5140 7720 7920 9370 12500
2026-04-12 20:00 4.29 4770 13100 (1998) 2060 (2023) 6040 2710 3260 4280 4400 5140 7720 7920 9370 12500
2026-04-12 19:00 4.31 4850 13100 (1998) 2060 (2023) 6040 2710 3260 4280 4400 5140 7720 7920 9370 12500
2026-04-12 18:00 4.34 4990 13100 (1998) 2060 (2023) 6040 2710 3260 4280 4400 5140 7720 7920 9370 12500
2026-04-12 17:00 4.37 5130 13100 (1998) 2060 (2023) 6040 2710 3260 4280 4400 5140 7720 7920 9370 12500
2026-04-12 16:00 4.38 5170 13100 (1998) 2060 (2023) 6040 2710 3260 4280 4400 5140 7720 7920 9370 12500
2026-04-12 15:00 4.39 5220 13100 (1998) 2060 (2023) 6040 2710 3260 4280 4400 5140 7720 7920 9370 12500
2026-04-12 14:00 4.37 5130 13100 (1998) 2060 (2023) 6040 2710 3260 4280 4400 5140 7720 7920 9370 12500
2026-04-12 13:00 4.35 5030 13100 (1998) 2060 (2023) 6040 2710 3260 4280 4400 5140 7720 7920 9370 12500
2026-04-12 12:00 4.31 4850 13100 (1998) 2060 (2023) 6040 2710 3260 4280 4400 5140 7720 7920 9370 12500
2026-04-12 11:00 4.29 4770 13100 (1998) 2060 (2023) 6040 2710 3260 4280 4400 5140 7720 7920 9370 12500
2026-04-12 10:00 4.27 4680 13100 (1998) 2060 (2023) 6040 2710 3260 4280 4400 5140 7720 7920 9370 12500
2026-04-12 09:00 4.24 4550 13100 (1998) 2060 (2023) 6040 2710 3260 4280 4400 5140 7720 7920 9370 12500
2026-04-12 08:00 4.23 4510 13100 (1998) 2060 (2023) 6040 2710 3260 4280 4400 5140 7720 7920 9370 12500
2026-04-12 07:00 4.23 4510 13100 (1998) 2060 (2023) 6040 2710 3260 4280 4400 5140 7720 7920 9370 12500
2026-04-12 06:00 4.24 4550 13100 (1998) 2060 (2023) 6040 2710 3260 4280 4400 5140 7720 7920 9370 12500
2026-04-12 05:00 4.25 4590 13100 (1998) 2060 (2023) 6040 2710 3260 4280 4400 5140 7720 7920 9370 12500
2026-04-12 04:00 4.26 4640 13100 (1998) 2060 (2023) 6040 2710 3260 4280 4400 5140 7720 7920 9370 12500
2026-04-12 03:00 4.29 4770 13100 (1998) 2060 (2023) 6040 2710 3260 4280 4400 5140 7720 7920 9370 12500
2026-04-12 02:00 4.32 4900 13100 (1998) 2060 (2023) 6040 2710 3260 4280 4400 5140 7720 7920 9370 12500
2026-04-12 01:00 4.33 4940 13100 (1998) 2060 (2023) 6040 2710 3260 4280 4400 5140 7720 7920 9370 12500
2026-04-12 00:00 4.37 5130 13100 (1998) 2060 (2023) 6040 2710 3260 4280 4400 5140 7720 7920 9370 12500
2026-04-11 23:00 4.37 5130 13100 (1998) 2060 (2023) 6040 2710 3260 4280 4400 5140 7720 7920 9370 12500
2026-04-11 22:00 4.42 5360 15200 (1998) 3120 (2004) 6100 3220 3550 4210 4530 5450 7770 8100 8580 11700
2026-04-11 21:00 4.43 5410 15200 (1998) 3120 (2004) 6100 3220 3550 4210 4530 5450 7770 8100 8580 11700
2026-04-11 20:00 4.43 5410 15200 (1998) 3120 (2004) 6100 3220 3550 4210 4530 5450 7770 8100 8580 11700
2026-04-11 19:00 4.43 5410 15200 (1998) 3120 (2004) 6100 3220 3550 4210 4530 5450 7770 8100 8580 11700
2026-04-11 18:00 4.41 5310 15200 (1998) 3120 (2004) 6100 3220 3550 4210 4530 5450 7770 8100 8580 11700
2026-04-11 17:00 4.38 5170 15200 (1998) 3120 (2004) 6100 3220 3550 4210 4530 5450 7770 8100 8580 11700
2026-04-11 16:00 4.31 4850 15200 (1998) 3120 (2004) 6100 3220 3550 4210 4530 5450 7770 8100 8580 11700
2026-04-11 15:00 4.23 4510 15200 (1998) 3120 (2004) 6100 3220 3550 4210 4530 5450 7770 8100 8580 11700
2026-04-11 14:00 4.13 4090 15200 (1998) 3120 (2004) 6100 3220 3550 4210 4530 5450 7770 8100 8580 11700
2026-04-11 13:00 4.06 3820 15200 (1998) 3120 (2004) 6100 3220 3550 4210 4530 5450 7770 8100 8580 11700
2026-04-11 12:00 4.02 3670 15200 (1998) 3120 (2004) 6100 3220 3550 4210 4530 5450 7770 8100 8580 11700
2026-04-11 11:00 4.01 3630 15200 (1998) 3120 (2004) 6100 3220 3550 4210 4530 5450 7770 8100 8580 11700
2026-04-11 10:00 4.01 3630 15200 (1998) 3120 (2004) 6100 3220 3550 4210 4530 5450 7770 8100 8580 11700
2026-04-11 09:00 4.03 3700 15200 (1998) 3120 (2004) 6100 3220 3550 4210 4530 5450 7770 8100 8580 11700
2026-04-11 08:00 4.05 3780 15200 (1998) 3120 (2004) 6100 3220 3550 4210 4530 5450 7770 8100 8580 11700
2026-04-11 07:00 4.08 3900 15200 (1998) 3120 (2004) 6100 3220 3550 4210 4530 5450 7770 8100 8580 11700
2026-04-11 06:00 4.12 4050 15200 (1998) 3120 (2004) 6100 3220 3550 4210 4530 5450 7770 8100 8580 11700
2026-04-11 05:00 4.16 4220 15200 (1998) 3120 (2004) 6100 3220 3550 4210 4530 5450 7770 8100 8580 11700
2026-04-11 04:00 4.22 4460 15200 (1998) 3120 (2004) 6100 3220 3550 4210 4530 5450 7770 8100 8580 11700
2026-04-11 03:00 4.27 4680 15200 (1998) 3120 (2004) 6100 3220 3550 4210 4530 5450 7770 8100 8580 11700
2026-04-11 02:00 4.31 4850 15200 (1998) 3120 (2004) 6100 3220 3550 4210 4530 5450 7770 8100 8580 11700
2026-04-11 01:00 4.35 5030 15200 (1998) 3120 (2004) 6100 3220 3550 4210 4530 5450 7770 8100 8580 11700
2026-04-11 00:00 4.40 5260 15200 (1998) 3120 (2004) 6100 3220 3550 4210 4530 5450 7770 8100 8580 11700
2026-04-10 23:00 4.43 5410 15200 (1998) 3120 (2004) 6100 3220 3550 4210 4530 5450 7770 8100 8580 11700
2026-04-10 22:00 4.44 5450 17500 (1998) 2690 (2004) 6210 3170 3710 4070 4370 5550 7330 7900 9600 12900
2026-04-10 21:00 4.46 5550 17500 (1998) 2690 (2004) 6210 3170 3710 4070 4370 5550 7330 7900 9600 12900
2026-04-10 20:00 4.47 5600 17500 (1998) 2690 (2004) 6210 3170 3710 4070 4370 5550 7330 7900 9600 12900
2026-04-10 19:00 4.48 5640 17500 (1998) 2690 (2004) 6210 3170 3710 4070 4370 5550 7330 7900 9600 12900
2026-04-10 18:00 4.48 5640 17500 (1998) 2690 (2004) 6210 3170 3710 4070 4370 5550 7330 7900 9600 12900
2026-04-10 17:00 4.46 5550 17500 (1998) 2690 (2004) 6210 3170 3710 4070 4370 5550 7330 7900 9600 12900
2026-04-10 16:00 4.42 5360 17500 (1998) 2690 (2004) 6210 3170 3710 4070 4370 5550 7330 7900 9600 12900
2026-04-10 15:00 4.38 5170 17500 (1998) 2690 (2004) 6210 3170 3710 4070 4370 5550 7330 7900 9600 12900
2026-04-10 14:00 4.32 4900 17500 (1998) 2690 (2004) 6210 3170 3710 4070 4370 5550 7330 7900 9600 12900
2026-04-10 13:00 4.26 4640 17500 (1998) 2690 (2004) 6210 3170 3710 4070 4370 5550 7330 7900 9600 12900
2026-04-10 12:00 4.21 4420 17500 (1998) 2690 (2004) 6210 3170 3710 4070 4370 5550 7330 7900 9600 12900
2026-04-10 11:00 4.20 4380 17500 (1998) 2690 (2004) 6210 3170 3710 4070 4370 5550 7330 7900 9600 12900
2026-04-10 10:00 4.20 4380 17500 (1998) 2690 (2004) 6210 3170 3710 4070 4370 5550 7330 7900 9600 12900
2026-04-10 09:00 4.21 4420 17500 (1998) 2690 (2004) 6210 3170 3710 4070 4370 5550 7330 7900 9600 12900
2026-04-10 08:00 4.25 4590 17500 (1998) 2690 (2004) 6210 3170 3710 4070 4370 5550 7330 7900 9600 12900
2026-04-10 07:00 4.27 4680 17500 (1998) 2690 (2004) 6210 3170 3710 4070 4370 5550 7330 7900 9600 12900
2026-04-10 06:00 4.29 4770 17500 (1998) 2690 (2004) 6210 3170 3710 4070 4370 5550 7330 7900 9600 12900
2026-04-10 05:00 4.32 4900 17500 (1998) 2690 (2004) 6210 3170 3710 4070 4370 5550 7330 7900 9600 12900
2026-04-10 04:00 4.35 5030 17500 (1998) 2690 (2004) 6210 3170 3710 4070 4370 5550 7330 7900 9600 12900
2026-04-10 03:00 4.37 5130 17500 (1998) 2690 (2004) 6210 3170 3710 4070 4370 5550 7330 7900 9600 12900
2026-04-10 02:00 4.35 5030 17500 (1998) 2690 (2004) 6210 3170 3710 4070 4370 5550 7330 7900 9600 12900
2026-04-10 01:00 4.34 4990 17500 (1998) 2690 (2004) 6210 3170 3710 4070 4370 5550 7330 7900 9600 12900
2026-04-10 00:00 4.30 4810 17500 (1998) 2690 (2004) 6210 3170 3710 4070 4370 5550 7330 7900 9600 12900
2026-04-09 23:00 4.23 4510 17500 (1998) 2690 (2004) 6210 3170 3710 4070 4370 5550 7330 7900 9600 12900
2026-04-09 22:00 4.19 4340 20700 (1998) 2040 (2004) 6160 2890 3560 4370 4420 5250 7560 7650 9220 15200
2026-04-09 21:00 4.14 4130 20700 (1998) 2040 (2004) 6160 2890 3560 4370 4420 5250 7560 7650 9220 15200
2026-04-09 20:00 4.13 4090 20700 (1998) 2040 (2004) 6160 2890 3560 4370 4420 5250 7560 7650 9220 15200
2026-04-09 19:00 4.10 3970 20700 (1998) 2040 (2004) 6160 2890 3560 4370 4420 5250 7560 7650 9220 15200
2026-04-09 18:00 4.06 3820 20700 (1998) 2040 (2004) 6160 2890 3560 4370 4420 5250 7560 7650 9220 15200
2026-04-09 17:00 4.01 3630 20700 (1998) 2040 (2004) 6160 2890 3560 4370 4420 5250 7560 7650 9220 15200
2026-04-09 16:00 3.93 3340 20700 (1998) 2040 (2004) 6160 2890 3560 4370 4420 5250 7560 7650 9220 15200
2026-04-09 15:00 3.95 3410 20700 (1998) 2040 (2004) 6160 2890 3560 4370 4420 5250 7560 7650 9220 15200
2026-04-09 14:00 3.96 3440 20700 (1998) 2040 (2004) 6160 2890 3560 4370 4420 5250 7560 7650 9220 15200
2026-04-09 13:00 3.96 3440 20700 (1998) 2040 (2004) 6160 2890 3560 4370 4420 5250 7560 7650 9220 15200
2026-04-09 12:00 3.99 3550 20700 (1998) 2040 (2004) 6160 2890 3560 4370 4420 5250 7560 7650 9220 15200
2026-04-09 11:00 4.00 3590 20700 (1998) 2040 (2004) 6160 2890 3560 4370 4420 5250 7560 7650 9220 15200
2026-04-09 10:00 4.02 3670 20700 (1998) 2040 (2004) 6160 2890 3560 4370 4420 5250 7560 7650 9220 15200
2026-04-09 09:00 4.04 3740 20700 (1998) 2040 (2004) 6160 2890 3560 4370 4420 5250 7560 7650 9220 15200
2026-04-09 08:00 4.06 3820 20700 (1998) 2040 (2004) 6160 2890 3560 4370 4420 5250 7560 7650 9220 15200
2026-04-09 07:00 4.10 3970 20700 (1998) 2040 (2004) 6160 2890 3560 4370 4420 5250 7560 7650 9220 15200
2026-04-09 06:00 4.11 4010 20700 (1998) 2040 (2004) 6160 2890 3560 4370 4420 5250 7560 7650 9220 15200
2026-04-09 05:00 4.15 4170 20700 (1998) 2040 (2004) 6160 2890 3560 4370 4420 5250 7560 7650 9220 15200
2026-04-09 04:00 4.16 4220 20700 (1998) 2040 (2004) 6160 2890 3560 4370 4420 5250 7560 7650 9220 15200
2026-04-09 03:00 4.21 4420 20700 (1998) 2040 (2004) 6160 2890 3560 4370 4420 5250 7560 7650 9220 15200
2026-04-09 02:00 4.21 4420 20700 (1998) 2040 (2004) 6160 2890 3560 4370 4420 5250 7560 7650 9220 15200
2026-04-09 01:00 4.22 4460 20700 (1998) 2040 (2004) 6160 2890 3560 4370 4420 5250 7560 7650 9220 15200
2026-04-09 00:00 4.22 4460 20700 (1998) 2040 (2004) 6160 2890 3560 4370 4420 5250 7560 7650 9220 15200
2026-04-08 23:00 4.22 4460 20700 (1998) 2040 (2004) 6160 2890 3560 4370 4420 5250 7560 7650 9220 15200
2026-04-08 22:00 4.20 4380 19100 (1998) 2680 (2004) 6130 3270 3910 4530 4830 5200 7090 7960 9040 13200
2026-04-08 21:00 4.19 4340 19100 (1998) 2680 (2004) 6130 3270 3910 4530 4830 5200 7090 7960 9040 13200
2026-04-08 20:00 4.18 4300 19100 (1998) 2680 (2004) 6130 3270 3910 4530 4830 5200 7090 7960 9040 13200
2026-04-08 19:00 4.14 4130 19100 (1998) 2680 (2004) 6130 3270 3910 4530 4830 5200 7090 7960 9040 13200
2026-04-08 18:00 4.13 4090 19100 (1998) 2680 (2004) 6130 3270 3910 4530 4830 5200 7090 7960 9040 13200
2026-04-08 17:00 4.10 3970 19100 (1998) 2680 (2004) 6130 3270 3910 4530 4830 5200 7090 7960 9040 13200
2026-04-08 16:00 4.07 3860 19100 (1998) 2680 (2004) 6130 3270 3910 4530 4830 5200 7090 7960 9040 13200
2026-04-08 15:00 4.05 3780 19100 (1998) 2680 (2004) 6130 3270 3910 4530 4830 5200 7090 7960 9040 13200
2026-04-08 14:00 4.06 3820 19100 (1998) 2680 (2004) 6130 3270 3910 4530 4830 5200 7090 7960 9040 13200
2026-04-08 13:00 4.07 3860 19100 (1998) 2680 (2004) 6130 3270 3910 4530 4830 5200 7090 7960 9040 13200
2026-04-08 12:00 4.06 3820 19100 (1998) 2680 (2004) 6130 3270 3910 4530 4830 5200 7090 7960 9040 13200
2026-04-08 11:00 4.06 3820 19100 (1998) 2680 (2004) 6130 3270 3910 4530 4830 5200 7090 7960 9040 13200
2026-04-08 10:00 4.09 3930 19100 (1998) 2680 (2004) 6130 3270 3910 4530 4830 5200 7090 7960 9040 13200
2026-04-08 09:00 4.10 3970 19100 (1998) 2680 (2004) 6130 3270 3910 4530 4830 5200 7090 7960 9040 13200
2026-04-08 08:00 4.14 4130 19100 (1998) 2680 (2004) 6130 3270 3910 4530 4830 5200 7090 7960 9040 13200
2026-04-08 07:00 4.17 4260 19100 (1998) 2680 (2004) 6130 3270 3910 4530 4830 5200 7090 7960 9040 13200
2026-04-08 06:00 4.21 4420 19100 (1998) 2680 (2004) 6130 3270 3910 4530 4830 5200 7090 7960 9040 13200
2026-04-08 05:00 4.25 4590 19100 (1998) 2680 (2004) 6130 3270 3910 4530 4830 5200 7090 7960 9040 13200
2026-04-08 04:00 4.29 4770 19100 (1998) 2680 (2004) 6130 3270 3910 4530 4830 5200 7090 7960 9040 13200
2026-04-08 03:00 4.35 5030 19100 (1998) 2680 (2004) 6130 3270 3910 4530 4830 5200 7090 7960 9040 13200
2026-04-08 02:00 4.37 5130 19100 (1998) 2680 (2004) 6130 3270 3910 4530 4830 5200 7090 7960 9040 13200
2026-04-08 01:00 4.40 5260 19100 (1998) 2680 (2004) 6130 3270 3910 4530 4830 5200 7090 7960 9040 13200
2026-04-08 00:00 4.43 5410 19100 (1998) 2680 (2004) 6130 3270 3910 4530 4830 5200 7090 7960 9040 13200
2026-04-07 23:00 4.47 5600 19100 (1998) 2680 (2004) 6130 3270 3910 4530 4830 5200 7090 7960 9040 13200
2026-04-07 22:00 4.49 5690 12500 (1998) 3430 (2004) 6140 3670 4030 4720 4850 5660 7070 8050 8620 11000
2026-04-07 21:00 4.47 5600 12500 (1998) 3430 (2004) 6140 3670 4030 4720 4850 5660 7070 8050 8620 11000
2026-04-07 20:00 4.49 5690 12500 (1998) 3430 (2004) 6140 3670 4030 4720 4850 5660 7070 8050 8620 11000
2026-04-07 19:00 4.47 5600 12500 (1998) 3430 (2004) 6140 3670 4030 4720 4850 5660 7070 8050 8620 11000
2026-04-07 18:00 4.42 5360 12500 (1998) 3430 (2004) 6140 3670 4030 4720 4850 5660 7070 8050 8620 11000
2026-04-07 17:00 4.36 5080 12500 (1998) 3430 (2004) 6140 3670 4030 4720 4850 5660 7070 8050 8620 11000
2026-04-07 16:00 4.27 4680 12500 (1998) 3430 (2004) 6140 3670 4030 4720 4850 5660 7070 8050 8620 11000
2026-04-07 15:00 4.19 4340 12500 (1998) 3430 (2004) 6140 3670 4030 4720 4850 5660 7070 8050 8620 11000
2026-04-07 14:00 4.11 4010 12500 (1998) 3430 (2004) 6140 3670 4030 4720 4850 5660 7070 8050 8620 11000
2026-04-07 13:00 4.07 3860 12500 (1998) 3430 (2004) 6140 3670 4030 4720 4850 5660 7070 8050 8620 11000
2026-04-07 12:00 4.05 3780 12500 (1998) 3430 (2004) 6140 3670 4030 4720 4850 5660 7070 8050 8620 11000
2026-04-07 11:00 4.04 3740 12500 (1998) 3430 (2004) 6140 3670 4030 4720 4850 5660 7070 8050 8620 11000
2026-04-07 10:00 4.05 3780 12500 (1998) 3430 (2004) 6140 3670 4030 4720 4850 5660 7070 8050 8620 11000
2026-04-07 09:00 4.07 3860 12500 (1998) 3430 (2004) 6140 3670 4030 4720 4850 5660 7070 8050 8620 11000
2026-04-07 08:00 4.11 4010 12500 (1998) 3430 (2004) 6140 3670 4030 4720 4850 5660 7070 8050 8620 11000
2026-04-07 07:00 4.14 4130 12500 (1998) 3430 (2004) 6140 3670 4030 4720 4850 5660 7070 8050 8620 11000
2026-04-07 06:00 4.21 4420 12500 (1998) 3430 (2004) 6140 3670 4030 4720 4850 5660 7070 8050 8620 11000
2026-04-07 05:00 4.25 4590 12500 (1998) 3430 (2004) 6140 3670 4030 4720 4850 5660 7070 8050 8620 11000
2026-04-07 04:00 4.29 4770 12500 (1998) 3430 (2004) 6140 3670 4030 4720 4850 5660 7070 8050 8620 11000
2026-04-07 03:00 4.36 5080 12500 (1998) 3430 (2004) 6140 3670 4030 4720 4850 5660 7070 8050 8620 11000
2026-04-07 02:00 4.40 5260 12500 (1998) 3430 (2004) 6140 3670 4030 4720 4850 5660 7070 8050 8620 11000
2026-04-07 01:00 4.42 5360 12500 (1998) 3430 (2004) 6140 3670 4030 4720 4850 5660 7070 8050 8620 11000
2026-04-07 00:00 4.48 5640 12500 (1998) 3430 (2004) 6140 3670 4030 4720 4850 5660 7070 8050 8620 11000
2026-04-06 23:00 4.48 5640 12500 (1998) 3430 (2004) 6140 3670 4030 4720 4850 5660 7070 8050 8620 11000
2026-04-06 22:00 4.49 5690 11600 (1998) 2640 (2002) 5880 2720 3400 4170 4240 5710 7000 7820 8750 10100
2026-04-06 21:00 4.53 5890 11600 (1998) 2640 (2002) 5880 2720 3400 4170 4240 5710 7000 7820 8750 10100
2026-04-06 20:00 4.52 5840 11600 (1998) 2640 (2002) 5880 2720 3400 4170 4240 5710 7000 7820 8750 10100
2026-04-06 19:00 4.51 5790 11600 (1998) 2640 (2002) 5880 2720 3400 4170 4240 5710 7000 7820 8750 10100
2026-04-06 18:00 4.48 5640 11600 (1998) 2640 (2002) 5880 2720 3400 4170 4240 5710 7000 7820 8750 10100
2026-04-06 17:00 4.41 5310 11600 (1998) 2640 (2002) 5880 2720 3400 4170 4240 5710 7000 7820 8750 10100
2026-04-06 16:00 4.35 5030 11600 (1998) 2640 (2002) 5880 2720 3400 4170 4240 5710 7000 7820 8750 10100
2026-04-06 15:00 4.28 4720 11600 (1998) 2640 (2002) 5880 2720 3400 4170 4240 5710 7000 7820 8750 10100
2026-04-06 14:00 4.19 4340 11600 (1998) 2640 (2002) 5880 2720 3400 4170 4240 5710 7000 7820 8750 10100
2026-04-06 13:00 4.16 4220 11600 (1998) 2640 (2002) 5880 2720 3400 4170 4240 5710 7000 7820 8750 10100
2026-04-06 12:00 4.13 4090 11600 (1998) 2640 (2002) 5880 2720 3400 4170 4240 5710 7000 7820 8750 10100
2026-04-06 11:00 4.12 4050 11600 (1998) 2640 (2002) 5880 2720 3400 4170 4240 5710 7000 7820 8750 10100
2026-04-06 10:00 4.15 4170 11600 (1998) 2640 (2002) 5880 2720 3400 4170 4240 5710 7000 7820 8750 10100
2026-04-06 09:00 4.18 4300 11600 (1998) 2640 (2002) 5880 2720 3400 4170 4240 5710 7000 7820 8750 10100
2026-04-06 08:00 4.21 4420 11600 (1998) 2640 (2002) 5880 2720 3400 4170 4240 5710 7000 7820 8750 10100
2026-04-06 07:00 4.25 4590 11600 (1998) 2640 (2002) 5880 2720 3400 4170 4240 5710 7000 7820 8750 10100
2026-04-06 06:00 4.29 4770 11600 (1998) 2640 (2002) 5880 2720 3400 4170 4240 5710 7000 7820 8750 10100
2026-04-06 05:00 4.33 4940 11600 (1998) 2640 (2002) 5880 2720 3400 4170 4240 5710 7000 7820 8750 10100
2026-04-06 04:00 4.39 5220 11600 (1998) 2640 (2002) 5880 2720 3400 4170 4240 5710 7000 7820 8750 10100
2026-04-06 03:00 4.44 5450 11600 (1998) 2640 (2002) 5880 2720 3400 4170 4240 5710 7000 7820 8750 10100
2026-04-06 02:00 4.46 5550 11600 (1998) 2640 (2002) 5880 2720 3400 4170 4240 5710 7000 7820 8750 10100
2026-04-06 01:00 4.52 5840 11600 (1998) 2640 (2002) 5880 2720 3400 4170 4240 5710 7000 7820 8750 10100
2026-04-06 00:00 4.54 5940 11600 (1998) 2640 (2002) 5880 2720 3400 4170 4240 5710 7000 7820 8750 10100
2026-04-05 23:00 4.56 6040 11600 (1998) 2640 (2002) 5880 2720 3400 4170 4240 5710 7000 7820 8750 10100
2026-04-05 22:00 4.60 6250 10900 (1998) 3070 (2003) 5850 3110 3460 4060 4180 5700 7470 7490 8770 10400
2026-04-05 21:00 4.59 6190 10900 (1998) 3070 (2003) 5850 3110 3460 4060 4180 5700 7470 7490 8770 10400
2026-04-05 20:00 4.57 6090 10900 (1998) 3070 (2003) 5850 3110 3460 4060 4180 5700 7470 7490 8770 10400
2026-04-05 19:00 4.57 6090 10900 (1998) 3070 (2003) 5850 3110 3460 4060 4180 5700 7470 7490 8770 10400
2026-04-05 18:00 4.54 5940 10900 (1998) 3070 (2003) 5850 3110 3460 4060 4180 5700 7470 7490 8770 10400
2026-04-05 17:00 4.50 5740 10900 (1998) 3070 (2003) 5850 3110 3460 4060 4180 5700 7470 7490 8770 10400
2026-04-05 16:00 4.42 5360 10900 (1998) 3070 (2003) 5850 3110 3460 4060 4180 5700 7470 7490 8770 10400
2026-04-05 15:00 4.35 5030 10900 (1998) 3070 (2003) 5850 3110 3460 4060 4180 5700 7470 7490 8770 10400
2026-04-05 14:00 4.26 4640 10900 (1998) 3070 (2003) 5850 3110 3460 4060 4180 5700 7470 7490 8770 10400
2026-04-05 13:00 4.20 4380 10900 (1998) 3070 (2003) 5850 3110 3460 4060 4180 5700 7470 7490 8770 10400
2026-04-05 12:00 4.18 4300 10900 (1998) 3070 (2003) 5850 3110 3460 4060 4180 5700 7470 7490 8770 10400
2026-04-05 11:00 4.15 4170 10900 (1998) 3070 (2003) 5850 3110 3460 4060 4180 5700 7470 7490 8770 10400
2026-04-05 10:00 4.16 4220 10900 (1998) 3070 (2003) 5850 3110 3460 4060 4180 5700 7470 7490 8770 10400
2026-04-05 09:00 4.18 4300 10900 (1998) 3070 (2003) 5850 3110 3460 4060 4180 5700 7470 7490 8770 10400
2026-04-05 08:00 4.19 4340 10900 (1998) 3070 (2003) 5850 3110 3460 4060 4180 5700 7470 7490 8770 10400
2026-04-05 07:00 4.20 4380 10900 (1998) 3070 (2003) 5850 3110 3460 4060 4180 5700 7470 7490 8770 10400
2026-04-05 06:00 4.24 4550 10900 (1998) 3070 (2003) 5850 3110 3460 4060 4180 5700 7470 7490 8770 10400
2026-04-05 05:00 4.30 4810 10900 (1998) 3070 (2003) 5850 3110 3460 4060 4180 5700 7470 7490 8770 10400
2026-04-05 04:00 4.33 4940 10900 (1998) 3070 (2003) 5850 3110 3460 4060 4180 5700 7470 7490 8770 10400
2026-04-05 03:00 4.38 5170 10900 (1998) 3070 (2003) 5850 3110 3460 4060 4180 5700 7470 7490 8770 10400
2026-04-05 02:00 4.40 5260 10900 (1998) 3070 (2003) 5850 3110 3460 4060 4180 5700 7470 7490 8770 10400
2026-04-05 01:00 4.47 5600 10900 (1998) 3070 (2003) 5850 3110 3460 4060 4180 5700 7470 7490 8770 10400
2026-04-05 00:00 4.52 5840 10900 (1998) 3070 (2003) 5850 3110 3460 4060 4180 5700 7470 7490 8770 10400
2026-04-04 23:00 4.54 5940 10900 (1998) 3070 (2003) 5850 3110 3460 4060 4180 5700 7470 7490 8770 10400

A total of 731 rows are displayed for years 1995 through 2025.